[{"header": {"dx": 0.06612293990616946, "dy": 0.0552356325346848, "nx": 98, "ny": 59, "la1": 35.046912555036876, "la2": 31.78801023549047, "lo1": -121.43107172385933, "lo2": -114.95102361305473, "refTime": "2026040802", "parameterCategory": 1, "parameterNumber": 2}, "data": [10.43, 10.75, 11.03, 11.36, 11.36, 11.36, 11.03, 10.43, 10.72, 11.03, 11.03, 10.43, 10.47, 9.09, 9.2, 9.97, 9.83, 8.94, 9.39, 9.39, 8.48, 0.0, -3.15, -3.49, -1.54, -1.47, -1.4, -1.49, -1.32, -1.23, 0.0, 0.0, 0.0, 1.73, 3.4, 4.02, 4.29, 5.06, 5.37, 5.69, 6.01, 6.64, 8.59, 9.84, 11.1, 12.65, 14.97, 16.74, 16.63, 14.88, 12.47, 11.6, 12.04, 11.61, 11.55, 11.12, 11.62, 11.62, 11.62, 12.07, 12.07, 11.57, 11.57, 11.0, 10.96, 11.4, 11.44, 11.44, 11.44, 11.02, 11.46, 11.05, 10.69, 10.24, 10.24, 10.69, 11.13, 12.0, 13.23, 12.96, 11.18, 8.94, 0.0, 0.0, 2.8, 4.43, 6.36, 7.37, 9.21, 9.39, 9.83, 10.73, 11.62, 10.37, 6.44, 7.54, 7.59, 8.93, 10.43, 10.75, 10.75, 11.36, 11.06, 11.06, 11.06, 10.75, 10.72, 11.03, 10.42, 10.87, 9.77, 9.3, 10.4, 10.52, 9.39, 10.28, 9.39, 8.24, 9.33, 0.0, -2.17, -2.28, -1.67, -1.47, -1.47, -1.25, -1.18, -1.4, -1.32, 0.0, 0.0, 1.32, 3.2, 4.02, 5.06, 5.37, 5.03, 6.01, 6.4, 7.15, 9.17, 9.97, 11.56, 13.28, 15.63, 15.75, 14.84, 12.52, 11.77, 11.87, 12.07, 11.53, 11.57, 11.62, 11.62, 12.07, 12.07, 12.07, 11.62, 11.57, 11.57, 11.13, 11.13, 11.44, 11.44, 11.57, 11.58, 11.58, 11.59, 11.58, 11.14, 10.69, 9.8, 10.25, 11.13, 12.0, 13.23, 12.96, 11.18, 8.94, 0.0, 0.0, 2.8, 4.43, 6.36, 7.37, 9.21, 9.39, 9.83, 10.73, 11.62, 10.37, 6.44, 7.54, 7.59, 8.93, 10.43, 10.43, 10.75, 10.75, 11.06, 11.06, 11.06, 10.45, 10.75, 11.05, 9.8, 8.24, 8.85, 9.53, 9.1, 10.32, 10.08, 10.41, 9.54, 9.75, 8.0, 5.46, 0.0, -3.32, -1.75, -1.32, -1.4, -1.25, -1.18, -1.25, -2.21, -1.32, 0.0, 0.0, 3.2, 6.32, 6.01, 5.44, 6.11, 6.17, 6.84, 8.56, 10.33, 11.65, 12.88, 14.26, 14.4, 13.28, 10.58, 10.61, 11.62, 11.03, 11.62, 11.62, 11.18, 11.62, 11.62, 12.07, 12.07, 12.07, 11.62, 11.62, 11.62, 11.18, 11.13, 11.57, 11.57, 11.58, 11.58, 11.58, 12.03, 12.52, 12.07, 11.18, 9.83, 9.39, 10.73, 13.86, 14.3, 13.86, 11.18, 8.8, 0.0, 0.0, 1.98, 2.8, 4.43, 6.7, 8.24, 8.77, 10.96, 12.52, 11.6, 6.9, 6.44, 6.98, 8.38, 9.2, 10.43, 10.43, 10.75, 10.75, 10.45, 10.45, 10.76, 10.76, 11.36, 10.75, 9.82, 8.24, 8.21, 8.22, 8.59, 10.0, 10.6, 10.79, 10.0, 9.2, 8.8, 9.75, 3.11, -2.46, -3.14, -1.84, -2.09, -1.25, -1.25, -1.14, -1.11, -2.04, -2.04, 0.0, 2.06, 4.37, 5.86, 7.59, 6.48, 7.63, 9.52, 11.13, 11.68, 11.84, 12.47, 12.33, 11.2, 10.25, 10.6, 9.75, 8.18, 10.08, 10.73, 10.73, 11.18, 11.18, 11.62, 12.07, 12.07, 12.07, 11.62, 11.62, 11.62, 11.62, 11.18, 11.18, 11.62, 11.18, 11.62, 12.52, 13.86, 13.86, 13.86, 11.62, 10.28, 9.8, 10.24, 12.9, 16.09, 14.3, 10.73, 9.33, 6.64, 3.4, 2.8, 3.0, 5.37, 6.7, 7.6, 9.96, 12.71, 12.58, 6.44, 6.21, 5.75, 6.7, 8.93, 9.2, 10.43, 10.43, 10.43, 10.75, 10.45, 10.45, 10.76, 10.76, 11.36, 10.45, 9.84, 8.23, 7.93, 7.27, 8.59, 9.3, 9.7, 10.4, 10.8, 8.94, 7.9, 8.55, 5.46, 0.0, -2.46, -3.11, -2.97, -1.47, -1.75, 0.0, 0.0, -1.02, -1.84, -0.82, 1.11, 3.68, 4.9, 7.44, 8.29, 8.68, 10.2, 11.05, 10.52, 11.17, 11.72, 11.38, 11.87, 11.18, 10.08, 9.33, 10.08, 10.28, 10.28, 10.2, 10.65, 11.12, 11.13, 11.58, 11.58, 11.58, 11.57, 11.57, 11.12, 11.62, 11.62, 11.62, 11.62, 11.62, 11.62, 12.52, 14.3, 15.2, 15.2, 14.26, 11.58, 9.7, 9.21, 10.04, 12.04, 14.55, 10.08, 6.94, 7.21, 5.37, 3.0, 3.4, 5.69, 6.01, 8.94, 11.6, 12.96, 6.97, 4.48, 5.29, 5.52, 8.38, 8.55, 9.2, 9.82, 10.43, 10.43, 10.75, 10.45, 10.45, 10.76, 10.76, 11.06, 11.06, 9.84, 7.6, 7.26, 7.9, 8.59, 9.3, 9.67, 10.04, 9.62, 8.01, 5.2, 3.61, 1.69, 0.0, -1.52, -1.45, -2.6, -1.33, -1.28, 0.0, 0.0, 0.0, 0.0, 0.83, 1.46, 2.87, 3.87, 7.01, 9.23, 8.58, 6.69, 6.6, 8.15, 11.33, 12.21, 12.6, 12.22, 11.62, 10.73, 10.28, 10.28, 10.73, 10.73, 10.65, 11.09, 10.96, 10.96, 11.44, 11.46, 11.46, 11.0, 10.96, 11.11, 11.12, 11.57, 11.57, 11.12, 11.13, 11.57, 12.07, 12.52, 13.86, 14.75, 15.65, 16.03, 13.59, 9.11, 7.81, 7.2, 10.38, 7.06, 6.64, 6.4, 5.37, 5.37, 4.71, 6.32, 10.41, 13.19, 14.3, 5.8, 4.81, 4.81, 4.83, 5.52, 8.38, 8.8, 8.43, 9.82, 10.13, 10.43, 10.43, 10.45, 10.45, 10.76, 10.76, 11.06, 10.76, 9.21, 6.33, 6.86, 8.58, 10.04, 9.3, 10.09, 10.19, 8.85, 8.54, 7.19, 5.4, 2.1, 0.0, -1.2, -1.2, -1.09, -2.24, -2.62, -3.08, -1.52, 0.0, 2.7, 4.36, 4.06, 3.14, 3.91, 5.5, 7.93, 5.92, 3.58, 3.68, 4.87, 8.58, 11.44, 11.57, 12.39, 11.03, 11.06, 11.06, 10.65, 10.2, 10.73, 11.09, 10.91, 10.96, 10.96, 11.21, 11.21, 11.44, 11.12, 10.68, 11.11, 11.12, 11.12, 11.57, 11.12, 10.96, 11.57, 11.57, 11.62, 11.62, 11.62, 14.3, 16.03, 16.44, 12.86, 8.38, 7.21, 8.94, 7.15, 6.79, 6.64, 6.64, 5.7, 6.2, 10.41, 13.88, 14.42, 8.18, 2.72, 5.64, 4.98, 3.32, 6.14, 8.03, 8.43, 7.33, 9.82, 9.82, 10.13, 10.43, 10.45, 10.45, 10.76, 10.76, 10.76, 10.45, 7.96, 4.63, 5.69, 9.46, 10.87, 9.77, 10.24, 11.72, 10.23, 10.73, 10.18, 10.37, 10.37, 7.02, 1.44, 0.0, -1.44, -2.62, -5.08, -4.9, -4.24, 0.0, 1.38, 5.27, 5.89, 5.2, 4.1, 4.12, 6.21, 4.48, 4.65, 4.93, 6.35, 6.54, 5.8, 5.95, 6.95, 9.6, 10.18, 10.75, 9.54, 10.2, 10.66, 10.66, 11.12, 10.96, 11.4, 11.4, 11.46, 11.57, 11.13, 11.13, 11.12, 11.13, 11.13, 11.57, 11.62, 11.18, 11.18, 11.62, 11.62, 11.62, 11.62, 12.92, 13.8, 13.41, 13.41, 12.52, 12.52, 14.11, 11.7, 9.48, 6.97, 5.95, 8.22, 10.8, 12.96, 13.57, 8.43, 6.6, 2.89, 2.45, 1.58, 3.49, 5.86, 7.33, 8.4, 7.33, 9.82, 9.82, 9.82, 10.13, 10.75, 10.45, 10.76, 10.76, 10.76, 9.8, 7.09, 4.3, 4.55, 6.21, 8.61, 9.17, 9.76, 10.59, 10.94, 10.91, 11.5, 11.99, 12.18, 13.27, 11.26, 8.53, 0.0, -2.71, -5.8, -4.28, -1.03, 0.0, 1.11, 3.42, 3.78, 4.33, 3.82, 3.82, 4.4, 2.69, 4.4, 5.2, 6.97, 5.7, 10.73, 10.28, 0.0, 8.18, 8.8, 8.8, 10.75, 9.97, 10.47, 10.52, 10.52, 10.96, 11.44, 11.44, 11.58, 11.58, 11.57, 11.13, 11.13, 10.68, 10.73, 10.68, 10.96, 11.12, 11.12, 11.13, 12.07, 12.07, 12.52, 12.96, 12.07, 11.18, 10.73, 11.62, 14.3, 15.87, 14.3, 9.39, 7.44, 7.9, 11.62, -0.0, 5.4, 6.94, 7.19, 3.14, 2.6, 1.95, 1.58, 4.6, 6.64, 7.28, 7.67, 7.33, 9.5, 9.82, 9.82, 10.13, 10.44, 10.45, 10.76, 10.76, 10.76, 9.46, 6.63, 5.86, 5.4, 5.8, 6.05, 7.26, 7.73, 8.4, 8.18, 7.34, 6.0, 7.11, 9.8, 10.73, 9.96, 9.66, 6.95, 2.28, 0.0, -1.17, 0.0, 0.0, 0.0, 0.0, 0.0, 0.0, 0.0, 0.0, 8.05, 8.49, 7.6, 7.44, 8.4, 8.94, 8.8, 9.6, 10.28, 6.95, 7.81, 8.8, 8.8, 9.04, 9.63, 10.18, 10.52, 10.52, 11.0, 11.46, 11.46, 11.46, 11.02, 11.13, 11.11, 8.49, 8.79, 9.6, 10.38, 10.41, 10.52, 11.57, 11.62, 11.62, 12.94, 12.49, 12.48, 12.03, 12.02, 11.12, 12.01, 14.6, 15.59, 0.0, 0.0, 12.96, -0.0, -0.0, -0.0, 4.4, 4.4, -0.0, -0.0, -0.0, -0.0, 3.11, 7.27, 7.67, 7.67, 6.64, 9.5, 10.12, 9.82, 10.13, 10.13, 10.45, 10.76, 10.76, 10.13, 8.51, 7.04, 6.99, 7.83, 7.55, 6.94, 6.2, 7.45, 7.49, 7.2, 7.03, 6.64, 6.98, 7.8, 8.2, 8.43, 7.54, 6.32, 6.44, 5.63, 2.1, 0.0, 6.71, -3.0, -6.0, -5.06, -2.49, 0.0, 8.94, 8.49, 8.4, 8.18, 8.8, 9.39, 8.18, 7.44, 9.75, 10.73, 9.75, 8.18, 7.44, 7.67, 8.4, 9.04, 9.63, 9.75, 10.28, 10.78, 11.64, 11.71, 11.21, 10.78, 9.34, 8.43, 8.15, 7.59, 8.94, 9.1, 9.2, 9.54, 10.28, 10.68, 11.49, 11.95, 11.51, 11.95, 11.93, 11.71, 11.56, 11.03, 13.44, 13.99, 0.0, -14.13, -16.09, -8.22, -0.0, 8.05, -0.0, -0.0, -0.0, -0.0, -0.0, -0.0, 3.8, 8.55, 8.58, 8.23, 6.95, 9.5, 9.8, 9.82, 10.13, 10.13, 10.44, 10.76, 10.76, 10.44, 8.78, 7.44, 7.4, 8.49, 9.5, 9.46, 8.81, 7.33, 6.92, 7.1, 6.8, 6.6, 6.95, 7.03, 6.64, 5.64, 5.72, 4.02, 3.6, 6.26, 6.71, 7.15, -0.0, -2.26, -4.74, -5.06, 0.0, 0.0, 8.49, 6.32, 8.91, 8.18, 8.18, 8.4, 3.49, 3.8, 6.01, 8.18, 7.44, 7.44, 6.64, 6.01, 6.98, 7.81, 8.15, 8.54, 9.63, 10.28, 11.99, 11.62, 11.03, 9.74, 8.77, 6.32, 5.1, 4.8, 5.92, 6.16, 9.62, 11.61, 11.62, 11.0, 10.6, 10.25, 10.84, 10.78, 11.56, 11.99, 11.03, 11.62, 13.28, 12.27, 9.48, -6.2, -14.79, -12.39, -9.83, -8.05, -8.94, -5.69, -5.06, -6.01, -0.0, -0.0, -0.0, 6.01, 8.93, 7.59, 6.17, 9.5, 9.8, 9.82, 10.13, 10.13, 10.44, 10.45, 10.45, 9.8, 8.78, 7.69, 7.83, 8.2, 9.79, 10.75, 11.69, 11.73, 10.46, 8.46, 7.48, 8.05, 9.02, 10.18, 10.73, 9.76, 8.82, 7.6, 7.6, -5.95, -6.79, -6.71, -5.37, -5.37, -5.06, -0.0, -0.0, -0.0, 4.0, 8.4, 8.94, 8.91, 9.39, 4.0, 1.58, 1.49, 2.49, 3.2, 4.83, 5.1, 5.36, 5.03, 4.96, 5.2, 5.2, 7.27, 8.58, 9.54, 10.73, 10.8, 8.0, -0.0, 3.49, 4.05, 2.49, 1.33, 1.28, 2.58, 7.15, 11.2, 12.39, 11.62, 10.18, 9.4, 9.6, 10.38, 11.85, 11.85, 11.44, 10.8, 11.03, 9.89, 10.28, 11.87, 14.75, -11.9, -12.39, -10.8, -8.05, -8.05, -8.05, -6.32, -7.6, -5.37, -0.0, -0.0, 7.59, 6.64, 6.95, 9.21, 9.5, 9.82, 9.82, 10.13, 10.13, 10.75, 10.44, 9.8, 8.78, 7.83, 8.49, 9.14, 9.49, 11.07, 12.29, 12.92, 12.7, 11.82, 11.14, 10.81, 11.52, 12.16, 12.9, 13.48, 13.49, 13.25, 12.3, 10.28, -7.63, -6.26, -5.37, -5.69, -4.74, -3.4, -0.0, -0.0, 3.8, 8.94, 9.39, 8.48, 7.6, 2.83, 0.0, 1.25, 2.66, 4.43, 5.06, 5.37, 7.27, 7.9, 7.24, 8.58, 7.93, 6.0, 8.53, 6.95, 8.06, 7.9, -5.06, -3.49, -0.0, 2.1, -0.0, -0.0, -0.0, -0.0, 4.83, 10.38, 8.3, 10.32, 12.07, 10.48, 8.82, 10.01, 11.16, 10.99, 10.48, 10.0, 10.73, 10.08, 8.8, 11.5, 14.42, -9.8, -12.27, -13.02, -11.45, -6.79, -7.6, -8.49, -7.63, -6.8, -5.06, 8.05, 9.83, 5.37, 7.2, 9.21, 9.5, 9.5, 9.82, 10.13, 10.13, 10.75, 10.44, 9.8, 9.06, 8.49, 8.49, 9.14, 9.49, 10.77, 11.99, 12.9, 12.94, 12.71, 12.49, 12.22, 12.16, 12.27, 13.32, 13.72, 13.97, 14.35, 13.7, 11.99, 10.28, 8.49, -4.74, -6.32, -5.69, -3.6, -0.0, -0.0, 8.0, 9.83, 7.6, 6.01, 7.81, 2.69, 0.0, -5.37, -0.0, -0.0, 7.15, 7.15, 7.15, 8.06, 10.41, 8.49, 5.37, 5.06, 7.15, 2.4, 5.46, 5.36, -0.0, -2.28, -0.0, 2.97, 2.83, 2.69, -0.0, -0.0, 6.01, 7.6, 7.07, 7.89, 11.62, 12.33, 8.44, 8.44, 8.85, 9.2, 9.83, 9.64, 8.8, 8.54, 8.4, 9.85, 11.35, 11.4, -14.3, -13.99, -11.9, -10.18, -8.49, -8.94, -8.49, -7.15, -6.71, 7.15, 7.6, 7.15, 7.15, 9.21, 9.5, 9.5, 9.82, 10.13, 10.13, 10.44, 10.44, 9.8, 9.06, 8.75, 9.14, 9.5, 9.84, 10.77, 11.7, 12.32, 12.6, 12.94, 13.33, 13.06, 13.05, 12.91, 13.3, 13.34, 13.84, 14.48, 14.77, 14.11, 12.98, 11.28, 9.39, 7.6, -0.0, -0.0, -0.0, -0.0, 4.0, 8.94, 7.6, 5.37, 6.32, 7.2, -0.0, -2.54, -1.95, -0.0, -0.0, 3.4, 5.37, 7.6, 7.63, 7.07, 6.01, 5.37, 7.6, 6.7, 5.63, 11.62, 6.2, 3.98, 4.6, 6.32, 8.06, 8.05, 8.05, 8.94, 8.49, 6.32, 8.0, 8.49, 11.18, 10.12, 3.36, 3.96, 8.94, 6.32, 7.56, 7.96, 7.96, 7.82, 7.35, 8.06, 8.05, 8.49, 7.6, -11.62, -10.4, -10.73, -9.39, -9.39, -7.15, -6.4, -7.6, 7.6, 6.71, 6.71, 6.71, 9.5, 9.5, 9.5, 9.5, 9.82, 10.13, 10.13, 10.44, 9.8, 9.44, 9.14, 9.14, 9.79, 10.13, 10.47, 11.38, 11.99, 12.27, 12.27, 12.29, 12.31, 12.63, 12.82, 13.2, 13.84, 15.12, 16.0, 16.6, 16.69, 15.71, 13.67, 11.87, 9.55, 10.28, -0.0, -0.0, -0.0, -0.0, 7.6, 5.37, 5.37, 6.71, 5.69, 2.26, -0.0, -0.0, -0.0, -0.0, 2.69, 6.01, 6.01, 4.96, 6.64, 6.64, 8.0, 9.39, 9.7, 10.28, 9.58, 7.54, 7.26, 7.27, 8.72, 8.77, 8.49, 7.15, 8.05, 8.05, 8.49, 8.94, 8.4, 9.17, 14.75, 13.86, 6.64, 4.0, 6.4, 8.69, 8.79, 7.81, 7.82, 8.17, 8.37, 9.83, 4.6, -8.05, -6.26, -4.11, -6.36, -9.83, -11.62, -7.63, -7.6, -6.01, -6.32, -3.2, -0.0, -0.0, 9.5, 9.5, 9.5, 9.5, 9.82, 10.13, 10.13, 10.13, 9.8, 9.73, 9.42, 9.79, 10.13, 10.43, 10.76, 11.38, 11.99, 12.27, 12.22, 11.92, 12.16, 12.73, 12.74, 13.19, 14.66, 15.73, 16.76, 17.2, 17.2, 17.04, 15.27, 13.11, 10.6, 9.64, 6.4, 6.01, 7.6, 5.69, 3.4, 5.06, 7.6, -0.0, -0.0, -0.0, 2.54, -0.0, 2.83, 2.83, 4.96, 6.32, 6.64, 6.64, 5.63, 6.64, 7.51, 8.72, 9.33, 9.2, 7.59, 7.9, 8.73, 9.2, 9.33, 8.82, 8.94, 7.6, 7.15, 7.63, 3.25, 3.68, 9.48, 13.41, 12.71, 9.33, 9.2, 8.53, 10.19, 11.12, 11.38, 11.2, 10.62, 10.05, 9.97, 11.18, -0.0, -0.0, -0.0, -1.41, -1.63, -2.49, -5.4, -4.6, -2.69, -0.0, -0.0, -0.0, -0.0, -0.0, 9.5, 9.5, 9.5, 9.5, 9.82, 10.13, 10.13, 10.13, 9.8, 9.73, 9.42, 9.79, 10.13, 10.13, 10.43, 11.9, 11.38, 11.99, 11.58, 11.72, 13.3, 14.33, 13.12, 13.41, 12.79, 15.02, 14.42, 16.62, 16.36, 15.62, 14.89, 13.05, 10.43, 10.41, 8.49, 7.15, 6.79, 6.08, 7.81, 8.0, 5.06, -0.0, -0.0, -0.0, 2.69, 2.83, 5.21, 6.64, 7.81, 7.81, 6.64, 5.63, 5.63, 5.36, 5.63, 7.68, 7.68, 8.03, 9.3, 10.0, 10.18, 10.14, 9.7, 8.49, 8.49, 7.89, 7.45, 7.47, 8.55, 10.8, 12.07, 12.75, 15.12, 16.48, 16.55, 15.53, 14.3, 13.86, 13.41, 12.91, 11.18, 10.73, 11.62, 11.4, 9.66, 6.98, 5.0, 3.53, -0.0, -0.0, -0.0, -0.0, -0.0, -0.0, -0.0, -0.0, 1.25, 1.25, 9.5, 9.5, 9.5, 9.5, 9.5, 10.13, 10.13, 10.13, 9.8, 9.44, 9.79, 10.08, 10.13, 10.13, 10.42, 11.07, 11.38, 10.45, 9.89, 11.26, 14.26, 14.68, 13.87, 12.92, 12.56, 12.92, 13.88, 13.68, 15.01, 15.18, 13.74, 10.9, 8.73, 9.33, 8.05, 7.15, 6.51, 7.21, 8.41, 8.94, 8.91, 7.87, 5.46, 4.0, 2.99, 6.95, 7.81, 7.81, 7.81, 7.81, 4.96, 4.0, 4.2, 4.2, 5.1, 6.64, 7.9, 7.56, 8.93, 10.6, 9.7, 9.39, 9.39, 8.94, 7.94, 7.89, 7.37, 9.83, 11.18, 10.41, 12.18, 14.84, 18.16, 19.45, 18.75, 16.82, 14.24, 12.09, 12.45, 12.22, 11.55, 11.18, 11.18, 10.18, 9.2, 7.59, 4.96, 2.64, 3.53, 1.62, 1.69, 3.96, 1.98, -0.0, -0.0, -0.0, 1.4, 1.4, 9.5, 9.5, 9.5, 9.5, 9.5, 10.13, 10.13, 10.13, 9.8, 9.5, 9.79, 10.13, 10.13, 10.77, 11.06, 11.39, 11.08, 10.13, 8.22, 9.77, 12.72, 13.87, 13.87, 12.64, 12.96, 12.96, 12.26, 12.57, 13.16, 12.65, 10.23, 7.81, 5.69, 7.6, 7.15, 6.26, 5.81, 6.26, 7.6, 8.6, 9.21, 8.55, 8.03, 6.95, 4.37, 6.64, 7.81, 8.91, 9.33, 6.32, 2.06, 2.17, 2.17, 4.2, 5.06, 5.63, 6.58, 7.59, 10.0, 9.83, 9.39, 9.39, 9.26, 8.82, 7.94, 8.49, 8.06, 5.69, 5.95, 6.69, 9.17, 12.86, 17.16, 18.66, 17.31, 15.77, 11.06, 10.22, 10.12, 10.37, 11.3, 11.09, 11.18, 9.03, 7.07, 4.47, 2.8, 2.88, 3.33, 3.2, 4.2, 5.0, 5.6, 1.32, -0.0, -0.0, -0.0, -0.0, 9.5, 9.5, 9.5, 9.5, 9.5, 9.82, 10.13, 10.13, 9.8, 9.5, 9.79, 10.13, 10.42, 11.06, 11.06, 11.7, 11.39, 10.45, 9.49, 10.97, 12.64, 12.33, 12.02, 11.72, 12.62, 13.19, 13.66, 12.65, 12.56, 11.72, 8.58, 9.54, 8.05, 7.6, 6.71, 6.26, 5.81, 6.26, 6.71, 7.06, 7.21, 7.2, 6.63, 6.01, 4.14, 3.68, 8.55, 9.33, 8.48, 2.69, -0.0, 2.17, 2.17, 4.2, 4.2, 5.06, 5.46, 5.92, 7.9, 9.21, 8.49, 8.77, 8.48, 8.6, 8.33, 8.06, 1.67, -0.0, 1.32, 3.65, 3.82, 8.01, 13.42, 18.22, 8.85, 8.87, 9.78, 9.42, 8.22, 8.41, 10.18, 10.4, 11.18, 8.43, 6.01, 4.22, 2.8, 2.8, 5.44, 6.58, 6.7, 6.98, 7.26, 3.0, 1.18, -0.0, -0.0, -0.0, 9.21, 9.21, 9.5, 9.5, 9.5, 9.5, 10.13, 10.13, 9.8, 9.79, 9.79, 10.13, 10.77, 11.06, 11.36, 11.7, 11.7, 10.77, 10.77, 12.32, 13.59, 12.6, 11.38, 11.08, 12.01, 13.19, 14.23, 14.03, 13.36, 11.5, 11.81, 12.39, 10.73, 9.39, 8.94, 8.49, 8.05, 8.05, 8.05, 7.89, 7.5, 7.21, 7.2, 5.93, 4.47, 3.68, 8.18, 8.48, 5.69, -0.0, -0.0, 2.28, 2.28, 4.0, 4.0, 3.49, 2.83, 4.05, 6.98, 7.07, 8.05, 7.89, 8.0, 7.89, 7.6, 1.58, 1.07, 1.25, 2.06, 2.83, -0.0, 9.83, 15.65, 13.41, 3.4, 3.3, 6.57, 8.51, 7.57, 7.2, 6.6, 9.17, 11.62, 7.51, 5.03, 3.68, 4.75, 5.59, 8.53, 9.8, 8.87, 6.58, 5.03, 3.91, 1.98, 1.1, 1.18, 1.18, 9.21, 9.21, 9.21, 9.5, 9.5, 9.5, 9.82, 10.13, 9.8, 9.79, 9.79, 10.42, 11.06, 10.76, 11.4, 11.7, 11.72, 11.39, 10.77, 12.33, 13.26, 13.2, 11.58, 10.99, 11.36, 12.56, 13.73, 14.51, 13.9, 12.67, 12.94, 13.25, 12.71, 11.53, 10.2, 9.74, 9.39, 9.39, 9.39, 8.94, 8.41, 8.17, 7.74, 7.2, 5.93, 5.06, 9.33, 8.91, 4.96, 2.17, 2.28, 2.28, 2.17, 2.17, 2.17, 2.17, 2.54, 2.69, 5.46, 7.87, 7.06, 7.21, 6.32, 7.6, -0.0, -0.0, 1.05, 3.39, 3.49, 4.96, 8.49, 8.85, 13.41, 10.4, 7.81, 7.15, 3.15, 5.6, 6.6, 6.4, 6.17, 9.8, 12.52, 6.95, 5.9, 5.06, 7.27, 7.59, 7.54, 8.22, 8.22, 4.58, 3.72, 3.35, 2.6, 2.26, 2.26, 2.26, 9.21, 9.21, 9.21, 9.21, 9.5, 9.5, 9.82, 9.82, 9.8, 9.8, 10.13, 10.42, 10.76, 10.76, 11.4, 11.4, 11.4, 11.1, 11.08, 12.01, 12.93, 13.2, 12.8, 12.22, 12.22, 12.16, 13.09, 14.13, 14.03, 13.34, 13.45, 13.23, 13.15, 12.2, 11.46, 10.68, 10.24, 10.28, 9.83, 9.83, 9.39, 8.89, 8.24, 8.24, 7.4, 7.47, 7.89, 7.67, 6.64, 4.83, 3.8, 5.7, 2.83, 2.06, 2.17, 2.17, 2.69, -0.0, 6.01, 8.67, 9.21, 7.6, 7.6, -0.0, -0.89, -0.0, 1.28, 2.49, 2.7, 7.6, 8.55, 10.04, 14.16, 14.11, 14.44, 12.89, 11.03, 2.69, 1.93, 2.82, 5.15, 12.27, 11.99, 2.82, 2.6, 3.82, 6.17, 5.29, 5.06, 5.03, 5.06, 4.95, 4.58, 4.19, 3.22, 3.2, 3.2, 3.2, 8.87, 8.87, 8.87, 9.21, 9.21, 9.5, 9.5, 9.82, 9.8, 9.8, 10.13, 10.13, 10.76, 11.1, 11.4, 11.4, 11.4, 11.1, 11.39, 11.7, 12.6, 12.9, 12.86, 12.92, 13.23, 13.46, 13.38, 13.48, 13.2, 12.7, 12.93, 13.33, 13.33, 12.8, 12.09, 10.96, 10.62, 10.25, 10.28, 10.28, 9.83, 9.34, 9.34, 8.73, 8.24, 8.17, 8.6, 8.0, 7.33, 6.64, 5.36, 3.6, 2.97, -0.0, 2.17, 2.28, 2.69, 2.4, 3.4, 8.05, 9.39, 9.64, 7.89, -0.0, -0.0, -0.0, 1.45, 1.39, 3.8, 7.6, 9.83, 11.71, 12.44, 14.3, 14.95, 13.9, 14.46, 13.86, -7.27, -6.64, 0.0, 0.0, -0.0, -4.24, -0.0, 1.93, 3.49, 4.83, 4.14, 5.03, 6.01, 5.37, 5.69, 4.87, 4.47, 4.75, 4.47, 4.47, 8.87, 8.87, 8.87, 9.21, 9.21, 9.21, 9.5, 9.5, 9.5, 9.8, 10.13, 10.43, 10.47, 11.1, 11.1, 11.1, 11.39, 11.08, 11.08, 11.7, 12.32, 12.56, 12.56, 12.86, 13.26, 13.82, 13.82, 13.58, 12.65, 12.81, 12.53, 12.11, 12.25, 12.4, 12.22, 11.58, 10.88, 10.54, 10.19, 10.26, 9.83, 9.83, 9.35, 8.77, 8.77, 8.73, 8.67, 9.03, 8.91, 8.3, 8.0, 4.46, -0.0, -0.0, -0.0, -0.0, 2.69, -0.0, -0.0, 5.06, 8.94, 8.94, 10.41, 2.4, -0.0, -0.0, 1.62, 4.96, 7.6, 8.94, 9.39, 10.18, 11.3, 12.88, 12.71, 11.99, 14.11, 13.86, 11.18, -8.49, -12.52, -14.39, -17.43, -13.02, -6.7, -0.0, 1.75, 2.99, 3.91, 6.01, 6.64, 7.33, 6.01, 6.32, 5.69, 5.69, 5.69, 5.69, 8.87, 8.87, 8.87, 8.87, 9.21, 9.21, 9.21, 9.5, 9.5, 9.8, 10.44, 10.43, 10.47, 10.76, 11.1, 11.39, 11.08, 11.08, 11.08, 11.7, 11.99, 12.56, 12.56, 12.56, 12.86, 13.51, 13.82, 13.76, 13.12, 12.85, 12.59, 12.64, 12.39, 12.56, 12.56, 11.72, 11.09, 10.54, 10.63, 10.26, 10.28, 9.83, 9.36, 9.24, 9.24, 9.21, 9.34, 9.33, 9.32, 8.94, 8.94, 7.2, -0.0, -0.0, -1.32, -0.0, -0.0, -0.0, -0.0, -0.0, 7.6, 9.39, 9.64, 3.15, 1.39, 1.76, 5.9, 8.91, 8.48, 8.48, 9.83, 10.62, 11.28, 11.61, 12.35, 12.42, 12.88, 13.15, 10.28, 7.15, -11.18, -12.96, -15.2, -16.48, -12.27, -3.82, -0.0, 1.84, 5.1, 7.15, 7.87, 8.82, 7.33, 7.81, 6.64, 6.98, 6.98, 6.98, 8.87, 8.87, 8.87, 8.87, 8.87, 9.21, 9.21, 9.5, 9.8, 9.8, 10.13, 10.43, 10.77, 10.76, 11.39, 11.08, 11.08, 10.76, 11.38, 11.38, 11.67, 12.56, 12.56, 12.56, 12.56, 12.86, 13.16, 13.18, 13.12, 13.32, 13.05, 13.04, 12.79, 12.56, 12.45, 12.04, 11.45, 10.8, 10.52, 10.62, 10.25, 9.83, 8.94, 9.83, 9.32, 8.14, 8.89, 8.85, 8.3, 9.26, 8.67, 8.49, 5.69, -0.0, -1.73, -1.14, -0.0, -0.0, -0.0, -0.0, 7.6, 8.94, 8.06, 3.49, 3.11, 3.87, 5.1, 6.64, 7.6, 7.44, 9.54, 11.06, 12.0, 11.87, 11.16, 10.82, 10.73, 9.3, 7.6, 6.26, 8.05, -7.9, -14.3, -6.2, -6.4, -5.2, -2.4, -0.0, 7.59, 9.6, 9.55, 9.13, 9.13, 8.8, 8.55, 8.18, 8.18, 8.18, 8.87, 8.87, 8.87, 8.87, 8.87, 9.5, 9.5, 9.5, 9.5, 9.8, 10.12, 10.44, 10.47, 10.77, 11.39, 11.08, 11.38, 10.76, 10.76, 11.38, 11.67, 11.96, 11.96, 11.92, 12.26, 12.57, 12.57, 12.82, 12.74, 12.77, 13.05, 13.19, 13.35, 13.11, 12.29, 12.04, 11.45, 10.8, 10.49, 10.49, 10.16, 10.16, 9.36, 8.45, 7.6, 9.74, 10.28, 7.15, 0.0, 0.0, 0.0, 0.0, 7.15, -0.0, -0.0, -1.52, -1.23, -0.0, -0.0, 2.26, 6.4, 8.05, 6.01, 3.49, 5.63, 4.0, 1.47, 2.39, 6.8, 6.01, 6.95, 9.96, 11.62, 13.41, 13.15, 13.51, 12.82, 11.75, 10.52, 7.6, 5.36, 7.89, 9.97, 7.9, 5.46, 1.58, -0.0, 3.2, 6.79, 7.81, 8.24, 8.67, 9.64, 9.96, 9.6, 9.6, 9.6, 9.6, 8.87, 8.87, 8.87, 8.59, 8.87, 9.17, 9.5, 9.5, 9.5, 9.8, 10.12, 10.43, 10.76, 10.77, 11.39, 11.08, 11.38, 10.76, 10.76, 11.06, 11.67, 11.63, 11.92, 11.92, 12.22, 12.22, 12.28, 12.24, 12.38, 13.05, 13.45, 13.33, 13.19, 12.66, 12.4, 12.14, 11.45, 10.8, 10.49, 10.62, 10.18, 10.18, 9.72, 8.9, 7.85, 9.89, 10.62, 7.15, 6.71, 0.0, 0.0, 5.37, 7.2, 6.71, 3.0, -0.0, -0.0, -0.0, -0.0, 2.12, 5.37, 7.44, 5.36, 8.0, 8.0, 7.6, -0.0, -0.0, 7.6, 8.48, 7.07, 9.39, 10.08, 12.14, 15.2, 15.55, 15.42, 13.74, 13.96, 12.96, 11.18, 8.05, 5.57, 6.03, 6.7, 7.44, 7.33, 9.67, 10.28, 10.28, 10.28, 10.73, 10.28, 10.58, 10.6, 10.6, 10.75, 10.75, 8.59, 8.59, 8.59, 8.87, 8.87, 8.87, 9.17, 9.5, 9.8, 9.8, 10.12, 10.43, 10.44, 10.77, 11.08, 11.39, 11.08, 10.76, 10.76, 11.36, 11.36, 11.63, 11.92, 11.58, 11.97, 11.93, 12.0, 11.01, 11.39, 11.94, 13.05, 13.05, 12.52, 12.25, 12.08, 11.8, 11.52, 10.8, 10.52, 10.63, 10.19, 10.19, 9.74, 9.28, 9.26, 9.49, 10.12, 9.83, 9.83, 9.83, 9.83, 9.83, 9.39, 8.94, 8.06, 5.06, 3.0, 1.52, 1.41, 1.3, 4.46, 6.01, 8.0, 8.24, 8.94, 8.94, 8.49, 8.94, 8.0, 9.39, 8.05, 5.69, 7.27, 12.35, 15.98, 18.3, 15.38, 13.48, 13.15, 14.3, 15.17, 14.69, 13.56, 9.6, 10.53, 11.09, 11.45, 10.79, 12.58, 11.62, 11.18, 11.18, 11.62, 10.73, 10.58, 11.02, 10.58, 10.58, 8.59, 8.59, 8.87, 8.87, 8.87, 8.87, 9.17, 9.8, 9.8, 10.12, 10.12, 10.43, 10.44, 10.74, 11.08, 11.39, 11.08, 10.76, 10.76, 11.36, 11.36, 11.36, 11.33, 11.63, 11.63, 11.58, 11.29, 11.01, 10.73, 12.13, 11.63, 11.56, 11.46, 11.33, 11.57, 11.3, 11.71, 10.98, 10.98, 10.65, 10.2, 10.2, 9.75, 9.74, 9.72, 9.7, 10.14, 10.25, 10.28, 10.28, 10.28, 9.83, 9.83, 9.33, 8.67, 7.2, 6.52, 5.06, 3.72, 1.52, 1.41, 6.7, 8.91, 8.05, 8.49, 8.49, 8.49, 8.49, 9.39, 9.83, 8.05, 5.9, 8.55, 12.35, 15.97, 19.64, 16.05, 12.52, 11.62, 12.45, 13.55, 14.75, 14.93, 15.61, 11.71, 11.8, 11.88, 11.51, 12.96, 11.62, 11.62, 11.18, 11.62, 11.18, 10.73, 10.58, 10.18, 10.18, 8.59, 8.59, 8.87, 8.87, 8.87, 9.17, 9.17, 9.8, 9.8, 10.12, 10.12, 10.43, 10.75, 10.74, 11.07, 11.08, 11.08, 10.76, 10.45, 11.36, 11.36, 11.33, 10.99, 11.28, 11.28, 11.33, 11.04, 11.36, 11.72, 12.39, 11.75, 11.12, 11.04, 11.04, 11.47, 11.21, 11.45, 11.23, 10.54, 10.54, 10.65, 10.2, 9.75, 9.81, 9.81, 9.72, 10.14, 10.14, 10.14, 10.25, 9.83, 9.83, 9.83, 9.39, 8.89, 8.17, 7.63, 7.06, 3.97, 1.73, 3.8, 6.01, 8.06, 8.06, 7.6, 8.05, 8.05, 8.05, 8.94, 9.39, 8.4, 8.93, 10.84, 11.87, 15.69, 19.56, 17.41, 14.18, 12.52, 13.39, 14.5, 15.54, 16.07, 16.06, 16.06, 11.59, 11.13, 10.73, 12.96, 11.4, 10.84, 11.03, 10.6, 11.28, 10.28, 10.73, 10.73, 10.73, 8.59, 8.59, 8.87, 8.87, 8.58, 9.17, 9.48, 9.48, 9.8, 9.8, 10.42, 10.43, 10.75, 11.05, 10.75, 11.06, 11.06, 10.76, 10.45, 11.03, 11.03, 11.33, 10.99, 11.28, 11.33, 11.29, 11.04, 11.36, 11.72, 12.39, 12.08, 11.83, 11.75, 11.2, 11.2, 11.09, 11.37, 11.03, 10.8, 10.41, 10.11, 10.11, 9.75, 9.81, 10.26, 10.16, 10.16, 9.97, 9.97, 9.7, 9.7, 9.8, 9.83, 9.39, 8.94, 8.87, 8.41, 7.47, 5.37, 3.97, 1.84, 3.8, 7.6, 8.06, 8.49, 8.94, 8.05, 8.49, 8.94, 8.94, 8.77, 9.97, 11.46, 12.96, 15.51, 16.96, 17.2, 16.12, 15.83, 16.15, 16.07, 16.09, 16.06, 15.61, 15.65, 12.07, 11.18, 13.41, 11.87, 10.79, 10.38, 9.6, 9.3, 10.84, 10.08, 8.82, 11.62, 11.62, 8.87, 8.87, 8.87, 8.58, 8.87, 9.17, 8.87, 9.19, 9.8, 9.8, 10.42, 10.43, 10.75, 11.05, 11.05, 11.06, 11.06, 10.76, 10.45, 11.03, 11.03, 10.99, 10.69, 10.69, 10.99, 11.29, 11.04, 11.36, 11.69, 12.01, 12.08, 11.99, 12.29, 11.75, 11.5, 11.5, 11.09, 10.95, 10.52, 10.32, 9.93, 9.64, 9.75, 9.75, 10.19, 10.18, 10.49, 10.45, 9.97, 9.97, 9.54, 9.7, 9.79, 9.39, 9.39, 8.94, 8.49, 7.89, 6.32, 5.06, 4.43, 4.11, 8.49, 8.05, 8.24, 9.54, 8.06, 9.39, 9.39, 8.94, 9.83, 8.94, 11.84, 13.07, 15.17, 15.65, 15.61, 15.82, 17.2, 18.25, 17.88, 15.17, 13.81, 12.9, 12.96, 12.52, 12.07, 11.51, 10.4, 9.58, 9.2, 8.58, 7.59, 8.93, 9.13, 7.63, 11.06, 11.06, 8.87, 8.87, 8.58, 8.58, 8.87, 9.17, 9.17, 9.19, 9.8, 9.8, 10.42, 10.43, 10.43, 11.05, 11.05, 10.75, 10.76, 10.45, 10.75, 10.75, 10.75, 10.72, 10.69, 10.69, 10.99, 11.04, 11.01, 11.01, 11.32, 11.42, 11.37, 11.69, 11.99, 12.15, 12.04, 11.79, 11.27, 10.85, 10.43, 10.32, 9.89, 9.46, 9.15, 10.68, 9.36, 10.05, 10.32, 10.25, 9.83, 9.75, 9.54, 9.49, 9.68, 9.34, 9.39, 8.94, 8.49, 7.89, 6.32, 5.06, 5.6, 5.81, 8.49, 8.05, 8.49, 9.83, 8.49, 8.94, 8.94, 8.94, 8.49, 8.94, 10.41, 12.98, 14.94, 15.65, 14.26, 14.58, 17.61, 18.59, 17.34, 14.3, 12.52, 11.62, 11.18, 11.18, 10.73, 10.62, 10.18, 9.2, 9.2, 8.23, 8.58, 7.59, 7.51, 6.52, 6.8, 8.48, 8.58, 8.58, 8.58, 8.58, 8.87, 9.17, 9.17, 9.48, 9.8, 9.8, 10.42, 10.12, 10.43, 10.43, 10.72, 10.75, 10.75, 10.75, 10.75, 10.75, 10.72, 10.72, 10.36, 10.73, 10.73, 10.7, 11.01, 11.32, 11.09, 11.42, 11.37, 11.69, 11.99, 12.29, 12.04, 12.3, 11.79, 11.37, 10.75, 10.32, 9.89, 9.4, 8.48, 10.47, 9.74, 10.52, 10.95, 10.15, 9.9, 9.49, 9.24, 9.49, 9.49, 9.21, 8.89, 8.94, 8.49, 8.05, 7.21, 6.79, 5.94, 5.81, 8.49, 7.6, 8.49, 9.39, 8.94, 8.49, 8.49, 8.49, 8.49, 9.39, 9.75, 12.27, 15.38, 15.85, 14.3, 13.99, 16.38, 18.24, 15.82, 14.27, 13.41, 12.52, 11.62, 11.18, 10.73, 10.28, 10.28, 10.28, 10.28, 10.28, 10.08, 9.2, 7.51, 6.52, 6.13, 6.8, 8.58, 8.58, 8.58, 8.58, 8.87, 8.87, 9.17, 9.48, 9.8, 9.8, 10.09, 10.12, 10.12, 10.43, 11.05, 10.75, 10.75, 10.75, 10.75, 11.05, 10.72, 10.4, 10.09, 10.39, 10.7, 10.7, 11.01, 11.32, 11.09, 11.05, 11.37, 11.69, 11.5, 11.44, 11.75, 12.04, 11.87, 11.45, 11.23, 10.75, 10.32, 9.4, 8.48, 8.14, 11.13, 11.23, 11.37, 9.6, 8.43, 8.8, 8.8, 9.13, 8.99, 9.16, 8.89, 8.43, 8.41, 8.05, 7.6, 6.79, 6.71, 6.26, 5.81, 8.94, 8.49, 8.67, 7.63, 8.06, 8.49, 8.49, 8.49, 8.49, 10.28, 11.62, 13.96, 13.37, 13.99, 14.3, 14.23, 14.24, 14.56, 14.68, 14.75, 13.8, 12.45, 11.4, 10.78, 10.18, 9.97, 9.75, 9.97, 9.89, 10.18, 10.28, 8.4, 7.6, 6.52, 6.13, 8.24, 8.24, 8.58, 8.58, 8.87, 8.87, 9.17, 9.48, 9.48, 9.8, 10.09, 10.12, 10.12, 10.43, 11.05, 10.75, 10.75, 10.75, 10.43, 10.72, 10.72, 10.42, 10.09, 9.78, 10.35, 10.35, 10.65, 10.96, 11.05, 11.05, 11.37, 11.3, 11.12, 11.44, 11.75, 11.75, 11.62, 11.87, 11.45, 11.23, 10.8, 9.89, 8.76, 8.4, 9.45, 12.21, 10.01, 7.82, 7.2, 7.58, 8.21, 8.58, 8.58, 8.37, 8.37, 8.24, 7.74, 8.05, 7.6, 7.15, 6.71, 6.26, 8.05, 8.05, 8.49, 8.94, 8.24, 9.11, 8.49, 8.94, 8.94, 8.94, 9.75, 9.75, 11.62, 12.56, 13.05, 13.99, 12.96, 12.07, 12.07, 12.96, 13.31, 12.94, 11.87, 11.45, 10.78, 10.28, 9.92, 9.97, 9.49, 9.64, 9.76, 10.28, 9.83, 8.77, 7.89, 7.89, 8.24, 8.24, 8.24, 8.58, 8.87, 8.87, 9.17, 9.48, 9.48, 9.8, 10.09, 10.12, 10.43, 10.43, 10.72, 10.43, 10.75, 10.75, 10.43, 10.72, 10.72, 10.42, 9.78, 9.78, 10.09, 10.41, 10.41, 10.73, 11.05, 11.05, 10.99, 10.99, 11.12, 11.44, 11.04, 11.34, 11.34, 11.21, 11.45, 11.03, 11.03, 10.18, 9.68, 9.45, 10.13, 10.94, 10.01, 8.3, 7.2, 7.6, 7.6, 7.37, 7.76, 7.76, 7.37, 7.81, 7.2, 7.37, 7.6, 7.15, 7.15, 6.36, 5.64, 8.49, 8.49, 8.94, 8.94, 8.94, 8.05, 8.67, 8.94, 8.94, 9.75, 8.8, 9.67, 11.71, 12.52, 14.18, 13.25, 9.96, 8.4, 8.8, 9.9, 11.03, 11.45, 12.2, 11.88, 11.44, 11.13, 10.68, 10.68, 10.68, 10.73, 9.83, 10.28, 9.26, 9.26, 9.26, 8.24, 8.24, 8.24, 8.24, 8.87, 8.87, 9.17, 9.48, 9.48, 9.8, 10.09, 10.12, 10.43, 10.43, 10.43, 10.43, 10.43, 10.43, 10.72, 10.72, 10.69, 10.09, 9.78, 9.78, 9.76, 10.06, 10.06, 10.37, 10.68, 10.68, 10.99, 10.61, 10.73, 11.04, 11.04, 10.94, 10.94, 10.94, 11.21, 10.79, 10.79, 10.38, 9.96, 9.55, 10.38, 10.38, 10.1, 9.75, 9.24, 8.72, 8.37, 7.6, 7.37, 7.37, 7.07, 6.7, 6.08, 6.8, 7.21, 7.6, 6.79, 6.51, 5.2, 8.49, 8.49, 8.49, 8.67, 9.11, 8.06, 8.48, 8.94, 9.11, 8.18, 8.58, 7.9, 9.08, 12.58, 13.82, 14.08, 14.39, 13.8, 13.51, 15.19, 15.42, 14.58, 13.15, 11.91, 12.01, 12.07, 12.07, 11.62, 10.73, 10.73, 10.73, 11.18, 10.28, 10.28, 10.28, 7.96, 7.96, 7.96, 8.24, 8.87, 8.87, 9.17, 9.17, 9.8, 9.8, 10.12, 10.12, 10.43, 10.43, 10.43, 10.43, 10.43, 10.72, 10.72, 10.69, 10.42, 10.39, 9.78, 10.09, 9.76, 10.06, 10.37, 10.01, 10.31, 10.31, 10.61, 10.61, 10.35, 10.65, 10.65, 10.94, 10.53, 10.53, 10.53, 10.53, 10.53, 10.53, 10.38, 9.96, 9.96, 9.96, 9.96, 10.1, 9.6, 9.75, 9.13, 9.33, 8.4, 7.76, 7.37, 7.07, 6.9, 7.06, 7.37, 7.37, 7.37, 6.51, 5.6, 5.81, 8.49, 8.49, 8.67, 8.06, 7.44, 8.49, 9.39, 7.07, 6.64, 8.23, 9.58, 10.79, 12.52, 13.8, 14.69, 13.81, 14.73, 16.97, 19.01, 17.96, 15.51, 14.75, 14.62, 14.3, 14.3, 13.86, 14.3, 10.65, 10.66, 10.23, 10.2, 10.18, 10.18, 10.18, 8.24, 8.24, 8.24, 8.24, 8.87, 8.87, 9.17, 9.17, 9.8, 9.8, 10.12, 10.12, 10.12, 10.12, 9.82, 10.4, 10.4, 10.4, 10.69, 10.69, 10.09, 9.78, 9.78, 9.8, 9.8, 10.06, 10.37, 10.01, 10.01, 10.31, 10.31, 10.24, 10.52, 10.35, 10.65, 10.94, 10.53, 10.53, 10.13, 10.13, 10.53, 10.53, 10.13, 10.13, 9.72, 9.96, 9.86, 9.45, 9.45, 9.6, 9.49, 9.66, 9.13, 8.58, 8.4, 7.76, 7.37, 7.2, 7.47, 7.81, 7.81, 6.4, 5.6, 6.23, 6.17, 8.94, 8.94, 8.05, 8.49, 8.94, 7.44, 7.44, 7.81, 8.8, 9.2, 10.73, 11.62, 13.34, 14.31, 13.19, 12.86, 16.51, 19.57, 18.38, 16.36, 14.58, 14.94, 15.2, 14.3, 14.66, 12.86, 11.98, 12.39, 11.98, 10.65, 10.62, 10.62, 10.62, 8.24, 8.24, 8.24, 8.24, 8.24, 8.87, 8.87, 8.87, 9.48, 9.8, 9.8, 9.5, 10.12, 10.12, 10.12, 10.4, 10.4, 10.69, 10.69, 10.69, 10.06, 9.78, 9.8, 9.8, 9.8, 9.8, 10.37, 10.01, 10.01, 10.31, 10.31, 10.24, 10.52, 10.35, 10.26, 10.26, 10.53, 10.53, 10.13, 10.13, 10.13, 10.13, 10.13, 10.13, 9.72, 9.6, 9.86, 9.86, 9.45, 9.34, 9.49, 9.49, 9.36, 9.66, 8.58, 8.58, 8.0, 7.81, 8.06, 7.89, 7.2, 6.8, 6.0, 6.0, 6.14, 8.49, 8.49, 8.67, 7.81, 7.44, 7.81, 7.44, 7.81, 9.54, 10.08, 10.73, 11.62, 12.52, 12.72, 11.37, 12.56, 15.59, 19.92, 18.57, 17.12, 15.77, 15.08, 14.75, 14.3, 13.28, 12.46, 12.83, 12.83, 12.83, 12.39, 10.62, 10.62, 10.62, 8.24, 8.24, 8.24, 8.24, 8.24, 8.87, 8.87, 8.87, 8.87, 9.5, 9.5, 9.5, 9.8, 10.12, 10.12, 10.4, 10.69, 10.69, 10.69, 10.99, 10.65, 10.09, 9.8, 10.13, 9.8, 9.8, 10.37, 10.01, 10.01, 10.31, 10.31, 10.61, 10.24, 10.35, 10.26, 10.26, 10.26, 10.53, 10.13, 10.13, 9.72, 9.72, 10.13, 9.72, 9.6, 9.6, 9.86, 9.86, 9.34, 9.34, 9.34, 9.49, 9.49, 9.49, 8.95, 8.8, 8.58, 8.0, 7.81, 8.06, 7.89, 7.2, 5.72, 5.36, 5.2, 7.63, 8.24, 8.67, 8.67, 8.3, 9.54, 8.91, 9.54, 9.97, 9.97, 10.73, 11.18, 11.62, 11.61, 10.87, 12.25, 13.77, 16.36, 18.02, 18.61, 17.3, 15.38, 14.3, 13.28, 12.89, 12.89, 12.04, 12.04, 12.46, 12.83, 12.39, 12.39, 12.39, 7.95, 7.95, 7.95, 8.24, 8.24, 8.24, 8.87, 8.58, 8.87, 9.19, 9.19, 9.5, 9.8, 9.8, 9.8, 10.36, 10.36, 10.69, 10.69, 10.65, 10.3, 10.09, 9.8, 9.8, 9.8, 10.12, 10.37, 10.37, 10.01, 10.31, 10.31, 10.61, 10.04, 10.35, 9.97, 10.26, 9.86, 9.86, 9.86, 9.72, 9.72, 9.72, 9.72, 9.72, 9.72, 9.6, 9.6, 9.86, 9.34, 9.34, 9.34, 9.2, 9.2, 9.2, 8.63, 8.8, 8.21, 8.17, 8.0, 7.6, 7.28, 6.9, 5.72, 4.74, 3.76, 4.74, 6.8, 8.33, 8.49, 9.21, 9.54, 9.97, 9.54, 9.97, 9.97, 10.28, 10.73, 10.73, 11.02, 11.09, 11.72, 12.25, 12.74, 14.88, 18.34, 18.91, 13.41, 11.95, 11.45, 11.87, 11.5, 11.5, 11.09, 11.09, 11.61, 12.04, 12.04, 12.04, 7.95, 7.95, 7.95, 7.95, 8.24, 8.24, 8.87, 8.58, 9.19, 9.19, 9.5, 9.5, 9.8, 9.8, 10.09, 10.09, 10.36, 10.36, 10.65, 10.65, 10.35, 10.09, 10.13, 9.8, 10.12, 10.12, 10.37, 10.37, 10.01, 10.31, 10.31, 10.31, 10.04, 10.35, 10.35, 10.26, 9.86, 9.86, 9.86, 9.86, 9.47, 9.72, 9.72, 9.72, 9.72, 9.6, 9.6, 9.6, 9.05, 9.34, 9.34, 9.2, 9.2, 8.63, 8.63, 8.43, 8.21, 8.21, 7.58, 7.44, 6.63, 6.28, 5.37, 4.74, 3.91, 4.29, 5.06, 7.21, 7.81, 8.24, 9.11, 8.8, 8.8, 9.55, 9.97, 9.97, 10.28, 10.28, 10.52, 11.02, 11.61, 11.5, 11.99, 14.19, 18.09, 16.99, 13.41, 11.51, 10.38, 10.79, 10.4, 10.09, 9.46, 10.48, 10.4, 10.68, 10.68, 10.68, 7.95, 7.95, 7.95, 7.95, 8.24, 8.24, 8.87, 8.58, 9.19, 9.19, 9.19, 9.19, 9.19, 9.77, 10.09, 10.09, 10.36, 10.65, 10.65, 10.3, 10.35, 10.09, 9.8, 9.8, 10.12, 10.12, 10.37, 10.01, 10.01, 10.01, 10.31, 10.09, 10.04, 10.04, 10.35, 9.97, 9.86, 9.86, 9.86, 9.86, 9.86, 9.47, 9.47, 9.72, 9.72, 9.72, 9.6, 9.6, 9.05, 9.05, 9.05, 8.88, 8.88, 8.67, 9.03, 8.43, 7.81, 7.81, 7.58, 7.28, 6.52, 5.69, 4.75, 4.19, 3.72, 4.11, 5.72, 5.06, 5.37, 5.69, 5.69, 7.44, 8.4, 7.51, 8.8, 9.97, 9.54, 9.83, 10.28, 10.73, 11.46, 11.91, 12.04, 14.55, 20.56, 18.33, 13.82, 11.51, 9.96, 10.38, 10.0, 9.3, 9.08, 8.59, 10.0, 10.52, 10.52, 10.52, 8.24, 8.24, 7.95, 7.95, 8.24, 8.56, 8.87, 8.58, 8.87, 9.19, 9.48, 9.48, 9.48, 9.77, 9.77, 10.09, 10.65, 10.65, 10.65, 10.59, 10.35, 10.41, 9.8, 10.12, 10.12, 10.12, 10.37, 10.01, 10.01, 9.77, 10.09, 10.09, 9.73, 10.04, 10.52, 10.13, 9.74, 9.58, 9.86, 9.86, 9.86, 9.47, 9.47, 9.47, 9.47, 9.47, 10.13, 9.6, 9.6, 9.05, 8.88, 8.88, 8.88, 8.67, 8.67, 8.06, 7.81, 7.81, 7.51, 6.79, 6.52, 5.44, 4.22, 3.97, 3.72, 3.72, 5.06, 5.06, 5.37, 5.37, 2.54, 3.8, 5.1, 5.1, 7.87, 8.8, 9.54, 9.83, 10.28, 10.73, 11.18, 11.62, 12.52, 18.33, 21.01, 18.78, 15.17, 12.66, 10.79, 9.58, 10.27, 9.7, 7.9, 7.59, 10.73, 2.1, 2.1, 2.1, 7.9, 7.9, 8.24, 7.95, 7.95, 8.56, 8.56, 8.87, 8.87, 9.17, 9.17, 9.17, 9.17, 9.77, 9.77, 10.06, 10.06, 10.3, 10.59, 10.35, 10.35, 10.06, 10.12, 10.12, 10.12, 10.37, 10.37, 9.77, 9.77, 9.77, 9.77, 9.77, 9.73, 9.73, 10.24, 10.13, 10.13, 9.74, 9.74, 9.74, 9.74, 9.6, 9.47, 9.47, 9.47, 9.47, 9.47, 9.7, 9.6, 9.45, 8.55, 8.55, 8.67, 8.67, 8.67, 8.06, 7.69, 7.41, 7.06, 6.79, 6.32, 5.44, 5.15, 3.55, 3.33, 3.64, 3.79, 4.09, 7.21, 7.63, 6.01, 4.0, 4.0, 4.0, 4.0, 6.32, 7.81, 8.8, 9.97, 9.97, 10.73, 11.18, 14.26, 17.77, 19.93, 18.68, 15.65, 12.66, 10.41, 8.93, 9.09, 9.2, 7.59, -0.0, -1.69, -0.0, -0.0, -0.0, 7.9, 7.9, 8.24, 8.24, 8.24, 8.56, 8.56, 8.87, 8.87, 9.17, 9.17, 9.17, 9.17, 9.46, 9.72, 10.06, 10.06, 10.06, 10.35, 10.35, 10.3, 10.06, 10.06, 10.12, 10.12, 10.37, 10.01, 9.77, 9.77, 9.77, 9.77, 9.77, 9.42, 9.73, 9.73, 9.67, 9.67, 9.48, 9.48, 9.74, 9.35, 9.35, 9.2, 9.07, 9.07, 9.47, 9.47, 9.32, 9.32, 9.14, 8.93, 8.55, 8.32, 8.32, 8.32, 7.68, 7.68, 7.41, 7.41, 7.06, 6.32, 5.53, 4.68, 3.77, 3.55, 3.9, 3.78, 4.37, 6.4, 7.63, 7.44, 7.44, 8.91, 8.91, 7.81, 4.96, 4.0, 6.95, 7.27, 9.2, 9.2, 10.52, 12.9, 15.12, 18.01, 16.48, 13.8, 10.79, 7.26, 7.54, 10.04, -0.0, -3.82, -3.25, -1.39, -1.33, -1.33, -1.33, 7.9, 7.9, 8.24, 8.24, 8.24, 8.53, 8.85, 8.56, 8.56, 9.17, 9.46, 9.46, 9.46, 9.46, 9.72, 9.72, 10.35, 10.35, 10.35, 10.01, 10.3, 10.06, 10.37, 10.12, 10.37, 10.01, 10.01, 9.77, 9.77, 9.77, 9.77, 9.77, 9.42, 9.42, 9.42, 9.37, 9.37, 9.37, 9.21, 9.48, 9.1, 9.1, 9.2, 8.82, 8.82, 8.82, 9.07, 9.32, 9.32, 9.14, 8.93, 8.58, 8.32, 8.32, 8.03, 7.68, 7.68, 7.02, 7.02, 6.64, 6.32, 5.53, 4.68, 4.42, 3.4, 3.55, 4.36, 4.11, 4.46, 6.44, 8.06, 8.94, 9.39, 9.83, 9.83, 9.54, 6.64, 4.4, 6.17, 7.27, 9.2, 10.52, 11.62, 13.67, 16.41, 15.98, 12.79, 10.28, 0.0, -10.0, -7.24, -5.2, -2.95, -3.11, -2.7, -1.39, -1.39, -1.39, 7.9, 7.9, 8.24, 8.24, 8.24, 8.53, 8.85, 8.85, 8.85, 9.46, 9.46, 9.46, 9.46, 9.46, 10.01, 10.01, 10.01, 10.01, 10.01, 10.3, 10.06, 10.06, 10.37, 10.37, 10.01, 10.01, 10.01, 9.77, 9.77, 9.77, 9.46, 9.12, 9.42, 9.42, 9.42, 9.42, 9.08, 9.08, 9.01, 9.01, 9.3, 8.93, 8.93, 9.2, 8.82, 8.82, 8.82, 8.65, 8.65, 8.45, 8.45, 8.58, 7.96, 7.96, 7.64, 7.31, 7.31, 6.64, 7.02, 6.64, 6.32, 6.01, 4.83, 4.26, 3.4, 3.2, 3.55, 3.9, 4.01, 5.69, 7.07, 8.48, 8.48, 8.94, 9.39, 9.39, 8.4, 5.9, 6.17, 7.27, 9.2, 10.52, 10.96, 12.96, 15.16, 16.86, 13.74, 10.73, -8.94, -7.68, -5.95, -5.54, -4.4, -3.25, -2.97, -2.58, -2.58, -2.58, 8.22, 8.22, 8.24, 8.24, 8.24, 8.82, 8.85, 8.85, 8.85, 9.13, 9.46, 9.46, 9.76, 9.76, 10.01, 10.01, 10.01, 10.01, 10.3, 10.3, 10.06, 10.37, 10.37, 10.37, 10.01, 10.01, 10.01, 9.77, 9.77, 9.77, 9.46, 9.12, 9.12, 9.12, 9.12, 9.12, 9.08, 9.08, 9.08, 9.01, 9.01, 8.93, 8.93, 8.93, 8.55, 8.82, 8.82, 8.82, 8.65, 8.45, 8.45, 8.23, 7.96, 7.96, 7.64, 7.31, 7.31, 6.64, 6.64, 6.64, 6.32, 5.59, 5.1, 4.26, 4.26, 3.4, 3.79, 3.55, 3.55, 4.14, 5.1, 6.32, 7.6, 7.6, 8.0, 7.81, 8.4, 7.51, 6.95, 7.87, 9.2, 9.96, 11.4, 12.86, 14.26, 16.99, 15.62, 12.01, 2.97, -3.8, -5.21, -6.42, -5.52, -5.29, -4.2, -4.0, -4.0, -4.0, 8.22, 8.22, 8.53, 8.53, 8.53, 8.82, 9.15, 9.15, 9.15, 9.13, 9.42, 9.42, 9.76, 10.01, 10.01, 10.01, 10.01, 10.3, 10.3, 10.3, 10.37, 10.01, 10.01, 10.01, 10.01, 10.01, 10.01, 9.77, 9.77, 9.46, 9.46, 9.12, 9.12, 9.12, 9.12, 9.12, 9.08, 9.08, 9.08, 8.73, 9.01, 8.65, 8.65, 8.93, 8.55, 8.55, 8.55, 8.37, 8.37, 8.37, 8.15, 7.9, 7.96, 7.96, 7.31, 6.95, 6.58, 6.64, 6.64, 6.64, 5.94, 5.59, 5.59, 5.1, 4.26, 3.4, 3.4, 3.79, 3.79, 4.29, 4.16, 7.44, 8.49, 8.49, 8.48, 8.91, 7.81, 8.4, 8.4, 8.8, 9.2, 10.38, 11.03, 12.58, 14.14, 16.95, 16.09, 13.41, 11.4, -0.0, -4.0, -4.83, -6.14, -6.14, -4.2, -4.2, -4.2, -4.2, 8.22, 8.22, 8.53, 8.53, 8.53, 8.82, 8.82, 9.15, 9.15, 9.15, 9.42, 9.42, 9.42, 10.3, 10.3, 10.3, 10.3, 10.3, 10.3, 9.71, 10.01, 10.01, 10.01, 10.01, 10.01, 10.01, 10.01, 9.77, 9.77, 9.77, 9.46, 9.12, 9.12, 9.12, 9.12, 9.12, 9.08, 9.08, 9.08, 8.49, 8.49, 8.65, 8.65, 8.65, 8.65, 8.29, 8.55, 8.37, 8.37, 8.37, 8.15, 7.9, 7.61, 7.61, 6.95, 6.95, 6.58, 6.58, 6.28, 6.64, 5.94, 5.94, 5.21, 5.1, 4.5, 4.26, 3.4, 4.03, 3.79, 4.29, 4.65, 8.0, 8.49, 9.39, 8.05, 8.94, 9.39, 9.11, 9.11, 8.8, 9.55, 10.38, 11.03, 11.72, 14.11, 16.06, 15.65, 13.86, 12.39, 2.93, -4.32, -4.37, -4.96, -5.46, -5.46, -4.66, -4.66, -4.66, 8.22, 8.22, 8.53, 8.53, 8.53, 8.82, 8.82, 9.15, 9.15, 9.15, 9.42, 9.42, 9.71, 9.94, 9.94, 10.3, 10.3, 9.94, 9.94, 10.01, 10.01, 10.01, 10.01, 10.31, 10.01, 10.01, 10.01, 10.01, 9.77, 9.77, 9.12, 9.12, 9.12, 9.12, 9.12, 9.12, 8.78, 9.08, 8.73, 8.49, 8.49, 8.15, 8.15, 8.65, 8.65, 8.65, 8.29, 8.08, 8.08, 8.08, 7.85, 7.58, 7.61, 7.61, 6.95, 6.95, 6.95, 6.28, 6.28, 6.28, 5.59, 5.94, 5.49, 5.21, 4.71, 4.26, 4.26, 4.03, 4.03, 3.79, 4.65, 5.95, 6.58, 8.94, 8.05, 8.49, 8.94, 9.39, 9.11, 8.4, 9.55, 9.58, 10.4, 11.72, 12.94, 15.61, 15.65, 14.71, 13.33, 10.41, -0.0, -5.75, -5.72, -5.46, -5.46, -4.66, -4.66, -4.66, 8.22, 8.22, 8.53, 8.53, 8.53, 8.82, 8.82, 9.15, 9.15, 9.15, 9.42, 9.42, 9.71, 9.94, 9.94, 10.3, 10.3, 9.94, 9.94, 10.01, 10.01, 10.01, 10.01, 10.31, 10.01, 10.01, 10.01, 10.01, 9.77, 9.77, 9.12, 9.12, 9.12, 9.12, 9.12, 9.12, 8.78, 9.08, 8.73, 8.49, 8.49, 8.15, 8.15, 8.65, 8.65, 8.65, 8.29, 8.08, 8.08, 8.08, 7.85, 7.58, 7.61, 7.61, 6.95, 6.95, 6.95, 6.28, 6.28, 6.28, 5.59, 5.94, 5.49, 5.21, 4.71, 4.26, 4.26, 4.03, 4.03, 3.79, 4.65, 5.95, 6.58, 8.94, 8.05, 8.49, 9.39, 9.39, 9.11, 8.4, 9.55, 9.2, 10.0, 11.3, 11.99, 13.7, 14.3, 15.16, 14.69, 13.67, 6.94, -4.32, -6.98, -4.96, -5.21, -4.88, -4.88, -4.88]}, {"header": {"dx": 0.06612293990616946, "dy": 0.0552356325346848, "nx": 98, "ny": 59, "la1": 35.046912555036876, "la2": 31.78801023549047, "lo1": -121.43107172385933, "lo2": -114.95102361305473, "refTime": "2026040802", "parameterCategory": 1, "parameterNumber": 3}, "data": [-10.43, -10.75, -10.45, -10.76, -10.76, -10.76, -10.45, -10.43, -10.13, -9.8, -9.8, -9.13, -8.38, -6.5, -4.6, -2.49, 0.0, 0.0, 0.0, 0.0, -2.83, -9.39, -7.89, -8.72, -9.26, -8.82, -8.38, -7.45, -6.58, -6.14, -7.15, -7.15, -7.15, -6.94, -6.8, -5.36, -5.72, -5.06, -5.37, -5.69, -6.01, -6.64, -7.15, -8.44, -9.71, -9.94, -10.57, -11.16, -10.5, -9.09, -7.01, -5.8, -3.44, -3.32, -1.28, -1.11, 0.0, 0.0, 0.0, 0.0, 0.0, 1.16, 1.05, 2.0, 2.19, 2.28, 2.08, 2.08, 2.08, 1.84, 1.91, 1.7, 0.89, 0.93, 0.93, 0.89, 1.01, 1.33, 2.2, 0.0, 0.0, 0.0, -7.15, -6.71, -5.6, -4.43, -2.12, -1.84, -1.84, 0.0, 0.0, 0.0, 0.0, 7.78, 10.73, 9.42, 7.59, 5.95, -10.43, -10.75, -10.75, -10.76, -11.06, -11.06, -11.06, -10.75, -10.13, -9.8, -9.8, -9.97, -7.82, -6.2, -5.2, -2.1, 0.0, 0.0, 0.0, -2.06, -3.11, -8.94, -8.67, -9.11, -8.33, -8.82, -8.82, -7.5, -7.06, -7.01, -6.58, -6.71, -6.26, -6.58, -6.4, -5.36, -5.06, -5.37, -6.28, -6.01, -7.47, -8.59, -9.17, -10.87, -12.45, -13.28, -14.71, -13.9, -12.22, -9.39, -6.42, -3.96, 0.0, -1.44, -1.16, 0.0, 0.0, 0.0, 0.0, 0.0, 0.0, 1.05, 1.05, 1.01, 1.01, 2.08, 2.08, 1.05, 0.97, 0.97, 0.89, 0.97, 0.93, 0.89, 0.82, 0.85, 1.01, 1.33, 2.2, 0.0, 0.0, 0.0, -7.15, -6.71, -5.6, -4.43, -2.12, -1.84, -1.84, 0.0, 0.0, 0.0, 0.0, 7.78, 10.73, 9.42, 7.59, 5.95, -10.43, -10.43, -10.75, -10.75, -11.06, -11.06, -11.06, -11.03, -10.75, -10.44, -9.8, -8.82, -8.85, -7.41, -5.69, -2.95, -2.02, -2.6, -2.39, -3.25, -4.0, -8.18, -8.94, -8.3, -8.77, -7.94, -8.38, -7.5, -7.06, -7.5, -7.74, -7.94, -7.15, -8.05, -6.4, -6.32, -6.01, -6.52, -7.13, -8.23, -9.4, -10.9, -12.92, -14.15, -15.45, -16.04, -15.3, -13.28, -8.95, -6.63, 0.0, 3.68, 0.0, 0.0, 0.0, 0.0, 0.0, 0.0, 0.0, 0.0, 0.0, 0.0, 0.0, 0.0, 1.01, 1.05, 1.05, 0.97, 0.97, 0.97, 0.93, 0.0, 0.0, 0.0, 0.0, 0.0, 0.0, 0.0, 0.0, 0.0, 0.0, -4.4, -9.39, -7.15, -5.94, -5.6, -4.43, -4.46, -2.06, -1.75, -2.19, 0.0, 5.8, 11.5, 10.73, 8.73, 6.7, 4.6, -10.43, -10.43, -10.75, -10.75, -11.03, -11.03, -11.36, -11.36, -10.76, -10.75, -10.4, -10.01, -10.03, -8.22, -7.15, -5.0, -3.53, -4.32, -5.0, -4.6, -4.4, -3.25, -9.33, -8.6, -8.37, -9.21, -7.31, -7.5, -7.5, -7.97, -8.87, -9.16, -9.16, -8.94, -8.24, -7.28, -7.33, -7.59, -10.18, -11.03, -12.98, -14.56, -15.27, -14.57, -13.43, -12.33, -10.27, -7.18, -3.53, 3.25, 5.46, 2.02, 0.0, 0.0, 0.0, 0.0, 0.0, 0.0, 0.0, 0.0, 0.0, 0.0, 0.0, 0.0, 0.0, 0.0, 0.0, 0.0, 0.0, 0.0, 0.0, 0.0, 0.0, 0.0, 0.0, -0.82, -0.93, -1.29, 0.0, 0.0, 0.0, -3.11, -6.64, -6.8, -5.6, -6.0, -5.37, -4.46, -3.8, -3.98, -2.54, 3.14, 10.73, 10.35, 9.58, 8.38, 5.95, 4.6, -10.43, -10.43, -10.43, -10.75, -11.03, -11.03, -11.36, -11.36, -10.76, -11.03, -10.99, -10.59, -9.69, -8.49, -7.15, -6.2, -5.54, -5.2, -5.4, -6.71, -7.9, -5.7, -8.18, -9.83, -8.6, -9.33, -8.91, -8.82, -8.77, -8.49, -8.94, -10.23, -11.02, -10.7, -11.12, -11.03, -11.03, -11.16, -13.27, -15.63, -15.76, -14.06, -11.58, -8.94, -8.2, -6.21, -3.96, 0.0, 2.02, 3.11, 2.02, 0.0, 0.0, -1.28, -1.33, -1.11, -1.01, -0.97, -0.97, -0.97, -1.05, -1.05, -1.11, 0.0, 0.0, 0.0, 0.0, 0.0, 0.0, 0.0, 0.0, 0.0, 0.0, -1.19, -0.97, -1.62, -1.84, -2.23, -3.44, -2.43, -2.02, -1.73, -2.4, -5.37, -6.0, -6.8, -5.69, -6.01, -6.71, -5.8, 0.0, 9.3, 11.21, 8.82, 9.2, 6.7, 5.7, 4.6, -10.4, -10.43, -10.43, -10.75, -11.03, -11.03, -11.36, -11.36, -11.06, -11.06, -10.99, -9.94, -9.08, -7.9, -7.15, -6.2, -6.45, -6.7, -8.01, -9.62, -10.4, -9.63, -10.14, -10.73, -10.62, -10.18, -10.41, -10.65, -10.2, -10.28, -9.39, -9.83, -10.28, -11.59, -12.43, -12.18, -12.37, -12.47, -14.26, -16.2, -15.61, -13.19, -9.5, -6.3, -5.55, -4.58, -2.72, 0.0, 0.0, 0.0, 0.0, 0.0, 0.0, -1.33, -1.39, -2.19, -2.19, -2.08, -1.91, -1.91, -2.0, -2.19, -1.23, -1.11, -1.16, -1.16, -1.11, -1.01, -1.05, 0.0, 0.0, 0.0, 0.0, 0.0, -1.46, -2.72, -2.28, -3.35, -3.6, -4.15, -2.82, -2.66, -3.2, -5.37, -5.37, -7.07, -6.32, -6.94, -6.6, 0.0, 11.6, 12.04, 12.04, 8.05, 9.2, 6.7, 4.4, 5.06, -10.4, -10.72, -10.43, -10.43, -11.03, -11.03, -11.36, -11.36, -11.06, -11.36, -10.94, -9.21, -8.82, -6.44, -6.7, -6.2, -5.77, -7.28, -8.85, -9.76, -10.79, -10.8, -10.52, -11.62, -12.01, -12.01, -12.02, -12.31, -11.78, -10.28, -10.62, -9.83, -9.46, -9.8, -11.37, -12.58, -13.29, -13.2, -11.9, -13.02, -14.31, -12.89, -12.98, -11.44, -10.01, -8.41, -6.2, -3.68, -1.58, -1.58, -1.33, -1.28, 0.0, -1.39, -2.42, -2.19, -2.19, -3.06, -3.06, -2.08, -1.11, -1.07, -1.23, -1.11, -1.11, -1.16, -1.11, -2.19, -1.16, -1.05, 0.0, 0.0, 0.0, 0.0, -1.46, -1.83, -1.61, -1.4, -2.4, -6.71, -5.36, -5.1, -6.64, -6.64, -8.55, -9.3, -6.94, -3.47, 4.81, 12.27, 13.59, 14.11, 12.45, 8.3, 7.68, 6.42, 5.06, 5.86, -10.4, -10.4, -10.72, -10.43, -11.03, -11.03, -11.36, -11.36, -11.36, -11.03, -9.66, -8.68, -9.1, -6.76, -6.21, -5.43, -6.4, -6.51, -7.96, -8.05, -8.73, -7.78, -7.78, -9.82, -11.53, -11.62, -11.53, -11.78, -11.44, -11.03, -11.3, -12.52, -12.44, -11.85, -11.04, -11.88, -12.3, -11.34, -10.35, -11.21, -11.62, -11.5, -14.3, -14.71, -11.6, -8.93, -6.95, -4.8, -3.39, -3.07, -2.39, -1.28, -1.18, -1.18, -1.11, -2.19, -2.28, -2.28, -1.91, -1.05, -1.01, -1.01, -1.11, -1.01, -1.01, -1.16, 0.0, 0.0, 0.0, 0.0, 0.0, 0.0, 0.0, -1.08, -1.25, 0.0, 0.0, 0.0, 0.0, -5.64, -11.7, -9.48, -9.3, -8.93, -8.22, -5.4, 0.0, 4.52, 12.65, 13.19, 14.47, 12.27, 7.89, 8.72, 7.33, 5.86, 4.2, 5.86, -10.4, -10.4, -10.4, -10.72, -10.75, -11.03, -11.36, -11.36, -11.36, -11.03, -10.31, -9.83, -12.14, -11.38, -9.69, -9.17, -8.54, -8.23, -8.51, -7.79, -6.9, -6.0, -4.43, -3.98, -6.43, -8.53, -10.28, -10.84, -11.6, -11.76, -13.37, -15.65, -15.61, -14.81, -12.87, -11.27, -11.45, -11.45, -8.8, -8.06, -8.8, -10.4, -9.3, -8.55, 0.0, 0.0, -9.83, -5.46, -4.4, -4.4, -3.07, -2.49, -2.33, -2.1, -2.1, -2.19, -2.08, -2.08, -0.97, -0.97, -1.05, -1.01, -1.01, -0.97, 0.0, 1.07, 2.19, 1.11, 1.11, 1.01, 0.0, 0.0, 0.0, 0.0, 0.0, 0.0, 0.0, 0.0, 0.0, -2.65, -10.73, -12.52, -11.16, -7.9, 0.0, 12.52, 10.8, 10.41, 10.79, 12.58, 10.41, 7.81, 7.89, 9.2, 6.64, 4.37, 4.6, 5.86, -10.09, -10.4, -10.4, -10.72, -11.05, -11.03, -11.36, -11.36, -11.36, -10.73, -10.61, -11.06, -10.8, -11.6, -12.96, -11.8, -12.56, -12.13, -12.27, -11.75, -11.99, -11.37, -9.8, -8.05, -8.3, -7.24, -6.95, -9.11, -12.96, -12.91, -13.86, -13.41, -12.52, -11.62, -11.18, -10.73, -9.83, -8.05, 0.0, 0.0, -3.8, -4.96, -4.2, 0.0, 4.4, 4.8, 0.0, -6.95, -5.21, -4.4, -4.4, -3.87, -3.61, -3.39, -2.1, -2.1, -2.0, -1.91, -1.91, -1.91, -1.84, -1.01, -1.23, 0.0, 3.3, 4.8, 4.15, 2.6, 2.1, 1.16, 0.0, 0.0, -0.86, -0.83, -0.89, -0.93, -1.09, -1.11, -1.2, -2.09, -7.8, -18.33, -15.65, 0.0, 10.73, 8.94, 8.94, 8.8, 8.8, 8.94, 8.05, 8.49, 8.05, 9.33, 7.27, 4.6, 4.6, 6.64, -10.09, -10.12, -10.4, -10.72, -10.72, -11.03, -11.36, -11.36, -11.33, -10.94, -10.88, -11.44, -11.44, -11.62, -13.02, -12.39, -13.25, -13.74, -14.39, -15.46, -17.08, -16.95, -15.59, -13.33, -12.65, -9.42, -6.32, -4.83, -7.51, -10.52, -10.28, 0.0, 6.0, 3.0, -5.06, -9.97, -9.39, 0.0, 0.0, 4.2, 5.46, 4.4, 0.0, -5.46, -4.96, -3.25, 0.0, -3.25, -5.46, -4.96, -4.6, -4.2, -3.87, -3.61, -3.25, -3.08, -2.94, -3.18, -2.93, -3.06, -2.94, -0.93, 1.05, 4.66, 7.59, 6.71, 5.69, 4.6, 2.39, 0.0, -1.07, -1.77, -1.71, -1.64, -1.71, -1.84, -2.93, -3.47, -3.68, -3.36, -7.0, -17.43, -9.42, -0.0, 8.22, 7.15, 0.0, 7.6, 8.05, 7.15, 8.05, 8.49, 8.05, 7.6, 5.7, 6.44, 6.17, 6.95, -10.09, -10.42, -10.4, -10.72, -10.72, -11.05, -11.36, -11.36, -11.05, -11.29, -11.16, -11.72, -11.52, -11.28, -10.73, -10.7, -9.59, -10.96, -12.42, -13.59, -13.19, -12.5, -11.94, -12.17, -10.16, -8.0, -5.36, -1.8, 0.0, 0.0, 0.0, 7.15, 6.79, 4.74, 5.06, -7.6, -7.6, 0.0, 6.32, 2.97, 5.46, 5.46, -4.2, -8.72, -7.6, -6.01, -5.46, -4.96, -4.96, -6.64, -6.01, -5.59, -5.21, -4.66, -4.88, -3.61, -3.08, -3.6, -4.65, -4.9, -1.39, 1.75, 6.32, 8.93, 9.6, 9.48, 9.86, 8.01, 3.32, 0.0, -2.0, -3.53, -3.16, -2.71, -2.94, -3.47, -3.6, -3.68, -4.65, -5.31, -7.36, -9.48, -12.39, -7.4, -6.2, -0.0, -0.0, -0.0, 5.69, 5.06, 6.01, 8.49, 7.6, 8.05, 6.01, 5.95, 7.59, 8.23, -10.09, -10.42, -10.4, -10.72, -10.72, -11.05, -11.03, -11.03, -11.03, -11.29, -11.53, -11.44, -11.72, -11.63, -10.75, -10.39, -9.66, -9.76, -10.41, -10.59, -10.73, -10.52, -9.4, -8.05, -7.1, -5.29, -3.8, 0.0, 3.97, 2.26, -0.0, 5.37, 5.37, 5.06, 7.15, 8.05, 7.6, 8.0, 4.2, 0.0, 2.97, 0.0, -8.0, -7.89, -7.45, -6.23, -6.4, -6.44, -6.79, -7.15, -6.28, -7.44, -7.28, -7.28, -7.27, -6.44, -2.39, 0.0, -5.4, -4.0, 8.49, 8.72, 9.45, 9.97, 10.65, 10.2, 9.03, 8.59, 5.6, 1.77, 0.0, -3.39, -4.18, -4.8, -4.15, -5.27, -5.27, -5.08, -5.4, -4.9, -2.82, 0.0, 3.96, 0.0, -7.93, -6.2, -5.4, -0.0, -0.0, -0.0, 6.32, 3.8, 5.37, 7.6, 8.94, 7.59, 6.64, 6.95, -10.36, -10.69, -10.4, -10.4, -10.72, -10.72, -10.75, -11.05, -11.03, -11.29, -11.44, -11.52, -11.58, -11.87, -11.68, -11.06, -10.33, -9.88, -10.25, -10.34, -10.04, -9.22, -8.36, -7.16, -5.99, -4.76, -4.08, -4.1, 0.0, 2.54, -0.0, 5.37, 5.69, 4.74, 6.8, 7.6, 7.6, 7.6, 0.0, 0.0, -2.83, -3.8, -8.48, -8.05, -7.5, -6.64, -4.43, -5.06, -5.37, -7.27, -7.9, -9.66, -11.44, -11.9, -11.99, -8.53, -6.95, -2.69, -7.9, 5.06, 8.72, 10.73, 10.52, 10.28, 8.94, 8.49, 8.49, 6.44, 4.15, 3.32, 2.95, 0.0, -5.99, -7.56, -7.51, -7.44, -6.87, -5.99, -5.0, 0.0, 2.02, 4.4, 4.93, 4.81, -9.8, -8.18, -8.68, -3.82, -2.26, -0.0, -0.0, 2.54, 3.4, 5.06, 0.0, 0.0, 5.37, 3.6, -10.36, -10.69, -10.69, -10.4, -10.72, -10.72, -10.75, -11.05, -11.03, -11.64, -11.52, -11.52, -11.58, -11.87, -11.96, -11.39, -11.06, -11.0, -10.59, -10.15, -9.77, -9.12, -8.18, -7.32, -6.53, -5.99, -5.02, -5.48, -6.0, 0.0, 0.0, 4.74, 6.32, 5.69, 7.2, 8.49, 9.39, 4.0, 0.0, -3.8, -6.01, -5.21, -8.06, -7.6, -5.37, 7.6, 7.6, 0.0, 0.0, 0.0, -2.69, -2.6, 0.0, 5.37, 5.06, 0.0, -7.21, -8.18, -7.15, 8.49, 9.11, 9.83, 8.91, 8.48, 8.06, 8.49, 8.49, 6.01, 3.8, 4.71, 3.15, 0.0, -5.28, -9.84, -9.84, -8.85, -4.6, 0.0, 1.93, 4.4, 4.88, 4.2, 2.95, 2.52, 2.28, -0.0, -4.66, -7.93, -3.39, -0.0, -0.0, -0.0, -0.0, -0.0, 0.0, 0.0, 0.0, 0.0, -10.36, -10.69, -10.69, -10.4, -10.72, -10.72, -11.05, -11.05, -11.03, -11.64, -11.88, -11.58, -11.28, -11.58, -11.96, -11.7, -11.7, -11.4, -11.0, -10.53, -10.15, -9.42, -8.84, -8.24, -7.28, -6.29, -5.92, -5.17, -5.64, -4.87, -2.82, 0.0, 0.0, 9.39, 8.05, 7.6, 8.94, 8.0, 0.0, -3.8, -5.37, -4.22, -3.6, 8.05, 7.63, 7.81, 8.05, 8.05, 6.8, 5.37, 0.0, 2.54, 4.71, 6.01, 5.37, 0.0, -4.46, -7.51, 0.0, 9.3, 9.96, 9.2, 6.32, 2.69, 0.0, 0.0, 0.0, 0.0, 6.32, 4.0, 0.0, 0.0, -10.12, -13.44, -11.87, 0.0, 6.32, 6.3, 4.98, 4.98, 4.34, 3.27, 2.69, 0.0, 0.0, 0.0, -0.0, -5.2, -0.0, -0.0, -0.0, -0.0, -3.2, -0.0, 0.0, 0.0, 0.0, 0.0, -10.69, -10.69, -10.69, -10.69, -10.4, -10.72, -10.72, -11.05, -11.03, -11.33, -11.58, -11.58, -11.63, -11.92, -11.63, -11.38, -11.39, -11.1, -11.1, -11.06, -10.37, -9.97, -8.97, -7.54, -6.29, -5.5, -4.18, -3.61, -3.18, -3.49, -4.21, -3.96, -3.82, 0.0, 7.6, 7.6, 8.05, 8.49, 0.0, -5.37, -5.37, 0.0, 5.69, 6.79, 8.05, 8.49, 8.49, 8.49, 8.06, 6.01, 6.01, 7.44, 6.64, 6.64, 4.0, 0.0, -1.62, 0.0, 5.75, 9.42, 9.08, 7.27, 3.49, 1.75, 0.0, 0.0, 0.0, 0.0, 0.0, 0.0, -4.2, -9.17, 0.0, 0.0, 6.64, 8.0, 7.47, 7.72, 6.15, 5.21, 4.34, 3.63, 3.14, 0.0, -9.2, -0.0, -0.0, 4.11, 2.12, -0.0, -0.0, -2.54, -0.0, 6.01, 6.32, 6.4, 6.26, 6.26, -10.69, -10.69, -10.69, -10.69, -10.4, -10.72, -10.72, -10.72, -11.03, -11.68, -11.93, -11.63, -11.33, -11.66, -11.36, -11.38, -11.39, -11.1, -10.47, -10.13, -9.12, -9.09, -8.28, -6.6, -4.0, -3.42, -2.79, -2.87, -2.87, -3.7, -5.09, -5.73, -5.78, -1.93, 3.2, 6.01, 0.0, -5.69, -6.8, -5.06, 0.0, 7.6, 7.6, 7.6, 7.63, 8.94, 8.48, 8.48, 7.44, 6.32, 6.64, 6.64, 7.51, 6.64, 5.63, 3.49, 3.11, 4.6, 7.59, 7.9, 6.98, 4.6, 3.11, 1.47, 0.0, 0.0, 0.0, -2.54, -9.75, -11.03, -9.48, 0.0, 2.54, 3.11, 5.52, 8.53, 7.28, 6.67, 6.21, 5.6, 4.72, 3.77, 2.49, 0.0, 10.73, 8.49, 8.94, 5.64, 6.51, 9.97, 10.8, 9.2, 8.06, 9.39, 9.39, 8.05, 6.71, 6.71, -10.69, -10.69, -10.69, -10.69, -10.4, -10.72, -10.72, -10.72, -11.03, -11.68, -11.93, -11.63, -11.92, -11.92, -11.66, -12.75, -11.38, -11.39, -9.84, -8.2, -8.24, -9.12, -8.53, -7.15, -6.4, -5.78, -4.81, -5.25, -6.03, -5.43, -6.09, -6.87, -6.08, -2.6, 0.0, 0.0, -2.26, -4.56, -5.21, -4.0, 5.06, 7.6, 8.05, 8.05, 8.06, 8.48, 7.81, 6.64, 5.21, 5.21, 6.64, 7.51, 7.51, 7.15, 7.51, 6.14, 6.14, 6.42, 6.2, 5.0, 3.39, 1.69, 1.62, 0.0, 0.0, -1.58, -1.49, -2.99, -5.7, -5.4, 0.0, 2.32, 4.03, 4.12, 3.82, 1.94, 0.0, 0.0, 0.0, 1.17, 0.0, 0.0, 0.0, 2.28, 7.24, 8.73, 10.0, 10.6, 11.62, 12.07, 12.07, 11.62, 9.83, 9.83, 9.39, 8.49, 7.5, 7.5, -10.69, -10.69, -10.69, -10.69, -10.69, -10.72, -10.72, -10.72, -11.03, -11.33, -11.63, -11.97, -11.92, -11.92, -12.26, -11.68, -11.38, -11.03, -11.54, -9.53, -9.23, -10.21, -10.57, -10.33, -10.76, -10.33, -9.8, -8.47, -8.87, -8.58, -7.49, -7.01, -6.98, -3.11, 0.0, 0.0, -1.63, -2.4, -1.2, 0.0, 2.97, 5.9, 8.18, 8.0, 7.47, 6.95, 5.21, 5.21, 5.21, 5.21, 7.44, 8.0, 8.4, 8.4, 6.79, 6.64, 7.9, 6.3, 5.1, 3.53, 1.62, 0.0, 0.0, 0.0, -1.32, -1.58, -1.84, 0.0, 0.0, 2.6, 4.43, 4.95, 4.78, 2.92, 0.99, -2.4, -6.47, -8.46, -4.98, -2.72, -1.28, 0.0, 0.0, 3.39, 5.52, 7.59, 7.44, 6.16, 10.6, 9.7, 10.14, 11.87, 11.91, 9.83, 9.39, 9.39, 8.38, 8.38, -10.69, -10.69, -10.69, -10.69, -10.69, -10.72, -10.72, -10.72, -11.03, -11.28, -11.63, -11.92, -11.92, -11.96, -12.29, -11.99, -11.67, -11.33, -11.16, -12.22, -11.92, -11.98, -11.98, -12.01, -11.66, -11.66, -10.42, -10.05, -10.02, -9.2, -7.22, -5.21, -5.69, 0.0, 0.0, 0.0, 0.0, 0.0, 0.0, 2.46, 3.45, 5.7, 6.42, 6.95, 7.28, 6.64, 5.21, 2.97, 3.11, 6.32, 8.24, 8.67, 8.67, 8.4, 8.43, 7.51, 7.9, 7.59, 5.0, 0.0, 0.0, 0.0, -1.54, -1.47, -1.32, 0.0, 2.69, 5.69, 8.93, 7.81, 9.17, 8.91, 6.44, 2.07, -2.04, -6.31, -11.06, -11.25, -10.12, -7.78, -4.24, -1.39, 0.0, 2.58, 4.71, 5.59, 5.6, 5.05, 5.82, 6.4, 8.4, 10.0, 11.2, 7.94, 8.49, 9.39, 8.49, 8.49, -10.69, -10.69, -10.69, -10.69, -10.69, -10.4, -10.72, -10.72, -11.03, -11.28, -11.63, -11.92, -12.26, -12.29, -12.29, -12.32, -11.99, -11.03, -11.87, -13.55, -13.27, -12.33, -12.62, -12.3, -12.02, -11.4, -10.1, -9.2, -8.56, -8.2, -6.44, -2.39, 0.0, 0.0, 0.0, 0.0, 0.0, 0.0, 0.0, 1.18, 2.4, 3.6, 5.31, 6.01, 6.9, 6.13, 5.7, 3.11, 2.83, 8.06, 8.94, 8.67, 8.67, 8.4, 8.4, 8.43, 8.18, 9.48, 7.9, 1.84, 0.0, -1.75, -2.83, -2.46, -1.67, 2.69, 8.33, 8.05, 7.94, 9.13, 9.55, 9.62, 8.05, 2.02, -8.85, -10.65, -13.34, -14.13, -12.79, -11.57, -8.73, -5.2, 0.0, 5.06, 6.01, 6.32, 5.6, 5.6, 6.52, 7.9, 10.04, 8.73, 9.08, 6.0, 7.06, 7.6, 8.05, 8.05, -10.36, -10.36, -10.69, -10.69, -10.69, -10.69, -10.72, -10.72, -11.03, -11.63, -11.63, -11.92, -11.96, -12.29, -12.63, -12.93, -12.32, -11.96, -11.96, -12.96, -12.3, -11.4, -11.38, -11.67, -12.01, -11.4, -10.08, -8.77, -8.14, -6.9, -6.36, -1.77, 0.0, 0.0, 0.0, 0.0, 0.0, 0.0, 0.0, 1.58, 1.25, 2.4, 3.6, 4.75, 5.59, 6.13, 5.46, 2.83, 5.69, 8.94, 9.39, 9.11, 9.11, 8.0, 8.0, 8.72, 8.48, 9.45, 8.73, 4.71, 0.0, -3.15, -4.0, -3.15, 3.8, 7.89, 7.52, 7.5, 8.24, 8.48, 8.94, 0.0, 0.0, 0.0, -6.8, -8.79, -12.2, -14.18, -14.2, -14.39, -13.19, -9.17, 0.0, 5.63, 6.28, 6.13, 5.93, 6.98, 8.53, 9.8, 10.65, 7.9, 6.28, 4.89, 5.94, 6.61, 7.06, 7.06, -10.36, -10.36, -10.36, -10.69, -10.69, -10.69, -10.4, -10.72, -11.03, -11.63, -11.63, -12.26, -12.29, -12.56, -12.6, -12.93, -12.3, -11.99, -11.96, -12.33, -12.0, -10.69, -9.84, -9.84, -10.76, -10.76, -10.74, -9.67, -8.11, -6.64, -6.09, -4.08, -2.54, -1.44, -1.28, -1.39, 0.0, 0.0, 0.0, 0.0, 1.2, 2.33, 2.21, 3.6, 4.75, 5.06, 3.11, 2.97, 7.44, 8.67, 9.11, 9.11, 8.67, 8.67, 8.67, 8.67, 7.63, 8.06, 8.18, 5.9, 2.82, -2.4, -4.22, 0.0, 7.15, 7.15, 8.43, 10.18, 8.72, 7.44, 0.0, -8.85, 0.0, 5.2, 5.21, 0.0, -7.89, -11.2, -13.19, -12.79, -13.89, -9.8, 0.0, 6.95, 7.87, 8.43, 7.27, 7.59, 9.42, 8.22, 8.22, 5.49, 4.46, 4.19, 5.2, 6.79, 6.79, 6.79, -10.36, -10.36, -10.36, -10.36, -10.69, -10.69, -10.4, -10.4, -11.03, -11.03, -11.33, -12.26, -12.56, -12.56, -12.6, -12.6, -12.6, -12.27, -11.67, -12.01, -11.7, -10.69, -9.75, -9.77, -9.77, -9.84, -10.11, -9.42, -8.77, -7.28, -6.05, -5.45, -4.38, -2.81, -1.91, -0.97, -0.93, 0.0, 0.0, 0.0, 0.0, 0.99, 2.06, 2.06, 3.17, 2.99, 3.15, 4.6, 6.64, 8.05, 7.6, 8.55, 8.48, 8.24, 8.67, 8.67, 8.06, 7.15, 6.01, 2.17, 1.84, 0.0, 0.0, 7.15, 7.1, 8.49, 10.2, 9.97, 9.46, 3.8, -5.7, -6.7, -2.02, 2.35, 6.02, 8.06, 3.68, -8.06, -9.64, -11.28, -12.87, -8.18, 6.0, 11.28, 10.41, 9.55, 8.23, 8.82, 8.43, 6.28, 5.06, 5.77, 5.49, 5.24, 4.84, 6.4, 6.4, 6.4, -10.65, -10.65, -10.65, -10.36, -10.36, -10.69, -10.69, -10.4, -11.03, -11.03, -11.33, -11.92, -12.56, -12.27, -12.6, -12.6, -12.6, -12.27, -11.99, -12.32, -11.4, -11.06, -10.41, -10.33, -9.92, -9.61, -9.73, -8.79, -8.4, -7.5, -7.11, -6.32, -5.18, -4.0, -3.23, -2.19, -1.52, -0.79, 0.0, 0.0, 0.0, 0.93, 0.93, 1.94, 2.06, 2.33, 2.46, 4.0, 5.86, 6.64, 7.15, 7.2, 8.91, 8.49, 8.67, 9.11, 8.06, 7.21, 6.8, 0.0, 0.0, 1.93, 3.15, 7.6, 7.15, 9.83, 10.18, 9.74, 7.6, 3.8, 0.0, -2.93, -1.38, 0.0, 4.6, 8.11, 8.03, 0.0, -7.27, -6.64, -13.86, -15.65, 15.65, 12.72, 10.28, 9.64, 8.72, 8.05, 6.9, 6.28, 6.01, 5.37, 5.69, 5.84, 5.59, 5.93, 5.59, 5.59, -10.65, -10.65, -10.65, -10.36, -10.36, -10.36, -10.69, -10.69, -10.69, -11.03, -11.33, -11.66, -12.22, -12.27, -12.27, -12.27, -11.99, -11.67, -11.67, -11.7, -11.7, -10.76, -10.76, -10.41, -10.61, -9.87, -9.87, -8.64, -8.43, -7.32, -6.89, -6.73, -6.48, -5.11, -4.31, -3.41, -2.56, -1.98, -1.36, -0.73, 0.0, 0.0, 0.85, 1.75, 1.75, 1.94, 2.17, 2.58, 2.97, 3.32, 4.0, 6.7, 7.6, 6.71, 8.05, 8.05, 8.06, 7.6, 7.15, 5.06, 0.0, 0.0, 2.6, 7.21, 9.39, 9.83, 9.7, 7.44, 3.8, 0.0, 0.0, -3.39, -4.24, -1.43, 2.54, 6.0, 5.64, 0.0, 0.0, -0.0, -0.0, -7.2, -0.0, 8.68, 10.04, 9.83, 8.77, 7.47, 6.52, 6.01, 6.64, 5.86, 6.01, 6.32, 5.69, 5.69, 5.69, 5.69, -10.65, -10.65, -10.65, -10.65, -10.36, -10.36, -10.36, -10.69, -10.69, -11.03, -11.05, -11.66, -12.22, -12.56, -12.27, -11.99, -11.67, -11.67, -11.67, -11.7, -11.39, -10.76, -10.76, -10.76, -10.41, -10.29, -9.87, -9.17, -8.53, -8.12, -7.69, -6.69, -6.2, -5.86, -4.71, -4.39, -3.47, -1.98, -1.42, -0.68, 0.0, 0.0, 0.78, 1.68, 1.68, 1.84, 0.93, 1.04, 1.16, 0.0, 0.0, 3.6, 7.6, 7.15, 6.58, 7.6, 8.05, 8.05, 7.6, 7.6, 0.0, 0.0, 1.93, 7.89, 9.74, 10.58, 7.87, 2.97, -2.83, -2.83, 0.0, -1.52, -2.82, -3.32, -2.06, -1.55, -1.43, -2.63, 0.0, 0.0, -0.0, -0.0, -0.0, 4.12, 8.18, 11.45, 9.39, 9.21, 6.79, 5.36, 5.9, 5.29, 5.86, 5.21, 6.64, 5.59, 5.59, 5.59, -10.65, -10.65, -10.65, -10.65, -10.65, -10.36, -10.36, -10.09, -10.42, -10.42, -10.72, -11.66, -11.96, -12.56, -11.99, -11.67, -11.67, -11.36, -11.38, -11.38, -11.08, -10.76, -10.76, -10.76, -10.76, -10.41, -10.02, -9.23, -8.53, -7.32, -6.87, -6.9, -6.4, -5.86, -4.98, -4.81, -3.82, -2.88, -2.1, -1.52, -0.79, 0.0, 0.0, 0.0, 1.16, 2.44, 0.99, -1.26, -3.32, -1.54, -2.17, 0.0, 5.69, 7.6, 6.94, 5.7, 7.6, 8.05, 7.6, 7.6, 0.0, 0.0, 2.69, 8.72, 9.33, 9.04, 8.93, 6.64, -3.8, -4.96, -2.39, -1.58, -1.33, -3.96, -7.44, -8.66, -8.05, -6.97, -3.8, 0.0, 0.0, -7.9, -0.0, 12.39, 12.79, 10.4, 7.21, 10.73, 7.59, 4.8, 3.82, 3.65, 3.65, 4.4, 5.7, 5.46, 5.46, 5.46, -10.65, -10.65, -10.65, -10.65, -10.65, -10.09, -10.09, -10.09, -10.09, -10.42, -10.12, -11.05, -11.63, -11.96, -11.99, -11.67, -11.38, -11.36, -11.36, -11.38, -11.08, -10.77, -10.77, -10.13, -10.42, -10.05, -10.05, -8.97, -8.28, -7.39, -6.87, -6.6, -6.28, -5.73, -5.38, -4.81, -3.82, -2.88, -2.25, -2.25, -1.56, -1.56, -0.78, -0.85, 0.0, 1.39, 0.0, 0.0, -6.26, -6.26, -6.26, -6.26, 0.0, 7.15, 6.71, 6.07, 6.14, 5.36, 7.15, 6.79, 3.2, 0.0, 6.01, 8.72, 7.51, 8.0, 8.82, 9.54, 3.4, -6.01, -6.95, -3.98, 0.0, 0.0, -4.38, -7.88, -8.16, -7.34, -2.1, 0.0, 0.0, -1.58, 2.49, 7.9, 7.64, 7.89, 7.15, 6.4, 2.26, 1.95, 2.06, 2.17, 1.93, 3.98, 4.8, 4.8, 4.8, 4.8, -10.65, -10.65, -10.65, -10.3, -10.06, -10.39, -10.09, -10.09, -10.09, -10.42, -10.12, -10.43, -11.36, -11.96, -11.99, -11.67, -11.38, -11.36, -11.36, -11.06, -11.08, -10.47, -10.13, -10.13, -9.77, -9.77, -9.69, -9.02, -7.17, -6.87, -7.08, -6.32, -6.6, -5.63, -5.11, -4.55, -3.82, -2.88, -2.25, -1.52, -1.45, -1.45, -1.5, -0.81, -1.75, -2.82, -1.52, 0.0, 0.0, -6.71, -7.6, -5.37, -3.6, 0.0, 6.0, 6.26, 6.26, 5.36, 4.92, 6.36, 5.37, 4.96, 7.15, 4.0, 4.0, 3.8, 8.05, 8.49, 3.8, -2.83, -4.71, 0.0, 2.02, 3.04, 0.0, -4.15, -7.12, -7.49, -3.1, 0.0, 0.0, 0.0, 1.67, 3.84, 4.46, 4.96, 5.86, 6.45, 0.0, 0.0, 0.0, 0.0, 0.0, 1.76, 3.53, 3.53, 3.07, 3.07, -10.3, -10.3, -10.3, -10.06, -10.06, -10.06, -10.39, -10.09, -9.8, -10.42, -10.12, -10.43, -11.05, -11.96, -11.67, -11.99, -11.67, -11.36, -11.36, -10.76, -10.76, -10.47, -10.13, -9.84, -10.08, -9.42, -9.33, -8.42, -7.89, -7.03, -6.87, -6.87, -5.93, -5.45, -4.7, -4.17, -3.6, -2.88, -2.1, -1.42, -1.36, -1.36, -1.39, -1.43, -1.54, -2.59, -1.84, 0.0, 0.0, 0.0, 0.0, 0.0, 0.0, 0.0, 2.69, 5.06, 6.0, 6.07, 5.64, 5.2, 6.7, 6.01, 4.0, 2.06, 0.0, 0.0, 0.0, 0.0, -4.0, 0.0, 0.0, 5.69, 7.27, 2.06, 1.88, -1.02, -4.73, -5.99, -4.38, 0.0, 1.01, 3.92, 5.81, 4.8, 4.92, 4.75, 3.82, 4.32, 3.14, 0.0, 0.0, 0.0, 0.0, 0.0, 1.76, 1.84, 1.76, 1.76, -10.3, -10.3, -10.06, -10.06, -10.06, -10.06, -9.78, -9.8, -9.8, -10.12, -10.12, -10.43, -11.05, -11.37, -11.67, -11.99, -11.67, -11.36, -11.36, -10.76, -10.76, -10.76, -10.13, -9.79, -9.79, -9.14, -8.78, -8.42, -8.05, -8.4, -7.53, -6.8, -6.07, -5.33, -4.77, -4.24, -2.93, -2.06, -2.06, -1.33, -1.28, -1.28, -1.3, -1.39, -1.5, -1.62, -1.69, -0.85, 0.0, 0.0, 0.0, 0.0, 0.0, 1.04, 2.17, 3.6, 3.91, 5.06, 5.58, 6.07, 5.64, 4.46, 2.97, 0.0, 0.0, 0.0, 0.0, 0.0, 0.0, 0.0, 4.83, 7.87, 5.7, -2.06, -2.0, -1.03, -1.15, 0.0, 0.0, 1.25, 2.9, 3.69, 4.67, 3.9, 2.93, 2.53, 2.16, 1.64, 0.0, 0.0, 0.0, 0.0, 0.0, 0.0, 0.0, 1.76, 1.45, 1.45, -10.3, -10.3, -10.06, -10.06, -10.06, -9.78, -9.78, -9.8, -9.8, -10.12, -10.12, -10.43, -10.75, -11.37, -11.68, -11.67, -11.67, -11.36, -11.03, -10.76, -10.76, -10.13, -9.84, -9.5, -9.5, -9.44, -9.09, -8.69, -8.96, -8.01, -7.34, -6.67, -5.89, -5.89, -5.02, -4.48, -3.82, -2.99, -1.98, -1.98, -1.33, -1.28, -1.3, -0.65, -0.7, -1.5, -1.69, -1.69, -1.69, -0.85, 0.0, 0.0, 0.0, 0.0, 0.99, 2.33, 2.54, 2.82, 5.95, 6.94, 7.6, 6.01, 2.69, 2.69, 0.0, 0.0, 0.0, 0.0, 0.0, 0.0, 4.2, 5.95, 2.71, -3.96, -5.23, -2.06, 0.97, 4.05, 4.81, 3.57, 2.72, 1.83, 0.95, 1.0, 1.07, 0.83, 1.01, 0.0, 0.0, -2.28, -2.71, -3.68, -3.53, -2.82, 0.0, 0.0, 0.0, 0.0, -10.3, -10.3, -10.06, -10.06, -9.72, -9.78, -9.48, -9.48, -9.8, -9.8, -9.8, -10.43, -10.75, -10.44, -10.75, -11.06, -11.06, -11.36, -11.03, -10.45, -10.45, -10.13, -9.84, -9.5, -9.44, -8.78, -9.09, -8.69, -8.96, -8.01, -6.79, -6.31, -5.48, -5.6, -5.6, -4.75, -4.06, -3.68, -2.88, -2.6, -1.89, -1.89, -1.3, -0.65, -0.73, -1.56, -1.56, -2.49, -2.49, -1.62, -1.62, -0.82, 0.0, 0.0, 0.0, 1.11, 1.2, 2.99, 5.37, 5.95, 5.51, 7.6, 3.8, 2.69, 0.0, 0.0, 0.0, 0.0, 0.0, 0.0, 1.75, 2.49, 1.91, 0.0, -2.07, -1.0, 2.87, 5.37, 6.16, 3.59, 0.85, 0.0, -1.07, -1.11, 0.0, 0.0, 0.0, 0.0, -3.96, -4.32, -4.15, -4.8, -6.2, -2.71, -2.02, -1.47, 0.0, 0.0, -10.06, -10.06, -10.06, -9.72, -9.46, -9.78, -10.06, -9.77, -9.8, -9.8, -9.8, -10.43, -10.75, -10.44, -10.44, -11.06, -11.06, -11.36, -11.03, -10.45, -10.45, -9.84, -9.5, -9.5, -9.16, -8.78, -9.09, -8.69, -8.25, -7.77, -6.79, -6.0, -5.38, -5.48, -4.93, -4.93, -4.75, -3.91, -3.76, -2.95, -2.65, -1.93, -1.3, -1.3, -1.36, -1.45, -2.25, -2.41, -2.49, -2.49, -2.39, -1.62, -0.89, 0.0, 0.0, 0.0, 0.0, 1.58, 4.22, 5.06, 4.43, 4.11, 0.0, 0.0, 2.06, 2.39, 2.69, 0.0, 0.0, 0.0, 0.0, 0.0, 2.37, 3.02, 0.95, 0.0, 1.04, 2.97, 2.87, 1.74, 0.0, -0.95, -1.15, -1.29, 0.0, 0.0, 0.0, -1.64, -5.2, -5.75, -5.52, -6.44, -7.59, -5.95, -3.65, -2.54, -1.58, -1.58, -10.06, -10.06, -9.72, -9.72, -9.46, -9.78, -9.78, -9.77, -9.8, -9.8, -9.8, -10.43, -10.43, -10.44, -10.44, -10.75, -11.36, -11.03, -10.75, -10.75, -10.75, -10.13, -9.5, -9.5, -9.16, -9.09, -8.42, -8.42, -7.99, -7.85, -7.11, -6.57, -6.0, -5.67, -4.81, -4.21, -4.33, -4.17, -4.01, -2.95, -2.82, -2.7, -2.11, -0.97, -0.67, -2.15, -2.95, -3.16, -3.02, -3.25, -2.39, -2.59, -1.76, -0.93, 0.0, 0.0, 0.0, 1.58, 4.22, 5.06, 2.8, 0.0, 0.0, 0.0, 0.0, 0.0, 0.0, 0.0, 0.0, 0.0, 0.0, 0.0, 2.6, 4.87, 2.8, 0.0, -1.19, -2.24, -3.11, -2.66, -1.83, 0.0, 0.0, 0.0, 0.0, 0.0, 0.0, -1.52, -3.39, -5.52, -5.52, -6.17, -6.44, -7.59, -5.63, -3.91, -3.4, -2.83, -9.72, -9.72, -9.72, -9.72, -9.46, -9.78, -9.78, -9.48, -9.8, -9.8, -9.8, -10.12, -10.43, -10.43, -10.13, -10.75, -10.75, -10.75, -10.75, -10.75, -10.13, -10.13, -9.21, -9.46, -9.46, -8.81, -8.42, -7.99, -8.31, -7.85, -7.11, -6.57, -6.0, -5.38, -4.81, -4.1, -4.21, -4.06, -3.07, -2.95, -2.82, -2.89, -2.83, -2.33, -1.39, -2.1, -3.91, -4.68, -4.13, -3.95, -3.36, -2.59, -2.59, -1.84, -0.99, 0.0, 0.0, 0.0, 2.4, 2.26, 1.98, 0.0, 0.0, 0.0, 0.0, 0.0, 0.0, 0.0, 0.0, 0.0, 0.0, 0.0, 3.25, 2.45, 2.88, 2.8, 0.0, -4.66, -7.17, -6.08, -2.97, -1.02, 0.0, 0.0, 0.0, 0.0, 0.0, 0.0, 0.0, 0.0, 0.0, 0.0, -2.02, -4.6, -5.63, -3.91, -3.68, -3.4, -9.72, -9.72, -9.72, -9.72, -9.46, -9.46, -9.78, -9.48, -9.8, -9.8, -9.5, -10.12, -10.12, -10.43, -10.44, -10.75, -10.75, -10.75, -10.75, -10.44, -10.13, -9.82, -9.5, -9.17, -8.81, -8.81, -8.42, -7.99, -8.31, -7.6, -7.11, -6.57, -6.9, -6.1, -5.48, -4.81, -3.96, -3.82, -2.99, -3.07, -2.95, -2.89, -2.83, -3.7, -3.34, -2.99, -4.06, -4.8, -5.06, -4.4, -4.4, -3.65, -2.7, -2.04, -0.99, -1.05, -1.2, 0.0, 0.0, 2.26, 0.0, 0.0, 0.0, 0.0, 0.0, -2.17, -2.54, -2.69, 0.0, 0.0, 0.0, 0.0, 0.0, 0.0, 3.1, 6.24, 4.66, 0.0, -3.88, -6.47, -4.37, -1.47, 0.0, 1.25, 1.25, 2.28, 2.94, 3.39, 2.49, 3.25, 2.49, 2.82, 1.45, 0.0, -4.2, -3.8, -3.91, -3.68, -10.01, -10.01, -9.72, -9.72, -9.46, -9.46, -9.78, -9.48, -9.48, -9.8, -9.5, -10.12, -10.12, -10.43, -10.44, -10.75, -10.75, -10.75, -10.43, -10.13, -10.13, -9.8, -9.5, -9.17, -8.53, -8.53, -8.15, -7.73, -7.6, -7.6, -7.11, -6.36, -6.67, -6.1, -5.48, -5.48, -4.65, -3.96, -3.82, -2.99, -2.88, -2.82, -3.37, -4.2, -5.09, -5.55, -3.85, -4.34, -4.5, -4.74, -4.56, -3.81, -3.81, -3.14, -3.14, -2.06, -2.21, 0.0, 0.0, 0.0, 0.0, 0.0, 0.0, 0.0, 0.0, 0.0, -2.06, -2.28, 0.0, 0.0, 0.0, 0.0, -3.25, -3.25, 0.0, 4.71, 4.66, 3.0, 0.0, 0.0, 0.0, 0.0, 1.66, 3.53, 3.96, 3.82, 2.94, 3.08, 2.71, 2.49, 2.59, 1.93, 1.22, 0.0, 0.0, -1.75, -3.15, -3.15, -10.01, -10.01, -10.01, -9.72, -9.46, -9.46, -9.78, -9.48, -9.48, -9.8, -9.5, -10.12, -10.43, -10.43, -10.13, -10.43, -10.75, -10.75, -10.43, -10.13, -10.13, -9.8, -9.17, -9.17, -8.83, -8.46, -8.46, -8.05, -7.6, -7.6, -6.87, -6.87, -6.67, -6.1, -5.89, -5.29, -5.29, -4.48, -3.82, -3.68, -3.68, -3.39, -3.46, -4.05, -4.73, -5.1, -3.85, -3.32, -3.6, -3.8, -3.8, -4.21, -4.44, -4.44, -4.21, -3.35, -3.6, -1.84, 0.0, 0.0, 0.0, -2.12, -1.41, 0.0, 0.0, 0.0, 0.0, 0.0, 0.0, 2.17, 0.0, 0.0, -3.25, -4.4, -6.45, -2.93, 0.0, 1.89, 4.08, 3.98, 4.2, 4.4, 4.13, 3.68, 3.82, 2.81, 2.16, 2.08, 1.01, 0.97, 0.97, 1.07, 0.0, 0.0, 0.0, -1.54, -1.54, -1.54, -10.01, -10.01, -10.01, -10.01, -9.46, -9.46, -9.78, -9.48, -9.48, -9.8, -9.5, -10.12, -10.43, -10.43, -10.43, -10.43, -10.43, -10.43, -10.13, -10.13, -9.5, -9.5, -9.17, -9.17, -8.54, -8.17, -8.17, -7.78, -7.34, -7.34, -6.87, -6.63, -6.44, -5.89, -5.89, -5.1, -5.1, -5.1, -4.48, -4.32, -4.32, -4.15, -3.98, -3.82, -4.15, -4.15, -3.61, -3.25, -3.36, -3.49, -3.14, -3.8, -4.21, -4.21, -4.71, -4.46, -4.56, -3.4, -2.4, 0.0, -2.26, -1.63, -2.6, 0.0, 0.0, 0.0, 2.17, 2.28, 2.69, 2.83, 0.0, -2.28, -5.46, -6.44, -7.9, -7.26, -3.14, 1.06, 4.4, 7.2, 8.28, 8.74, 7.6, 5.99, 4.29, 2.63, 1.98, 1.2, 0.0, 0.0, 0.0, 0.0, 0.0, 0.0, 0.0, 0.0, 0.0, 0.0, -9.66, -9.66, -9.66, -10.01, -9.46, -9.46, -9.78, -9.78, -9.8, -9.8, -10.12, -10.12, -10.43, -10.43, -10.43, -10.43, -10.43, -10.13, -10.13, -9.5, -9.8, -9.17, -9.17, -8.83, -8.54, -8.17, -7.78, -7.51, -7.09, -7.09, -6.63, -6.63, -6.21, -5.68, -5.68, -5.1, -4.92, -4.92, -4.92, -4.92, -4.92, -4.92, -4.15, -3.98, -3.98, -3.98, -3.98, -3.61, -3.69, -3.25, -3.65, -3.11, -4.2, -4.44, -4.21, -4.71, -4.14, -2.82, -1.84, -1.84, -1.84, -1.63, -2.8, -2.32, 0.0, 0.0, 2.17, 2.69, 4.96, 0.0, 0.0, -4.71, -6.64, -6.17, -5.75, -4.32, 0.0, 1.25, 3.92, 7.36, 10.13, 11.61, 9.96, 6.84, 4.31, 3.69, 1.95, 0.0, 0.0, 0.0, 0.0, -1.33, -1.18, -1.02, -1.28, -1.45, -1.45, -1.45, -9.42, -9.42, -9.42, -9.42, -9.46, -9.46, -9.78, -9.78, -9.8, -9.8, -10.12, -10.12, -10.12, -10.12, -10.4, -9.82, -9.82, -9.82, -9.5, -9.5, -9.5, -9.17, -9.17, -9.15, -8.49, -8.17, -7.78, -7.51, -7.51, -7.09, -7.09, -6.4, -5.92, -6.21, -5.68, -5.1, -4.92, -4.92, -4.73, -4.73, -4.92, -4.92, -4.73, -4.73, -4.54, -3.98, -4.23, -4.05, -4.05, -3.69, -3.95, -3.51, -3.65, -3.81, -4.2, -4.44, -4.21, -3.6, -2.99, -1.95, -1.95, -3.2, -2.8, -2.49, -1.03, 0.0, 0.0, 0.0, 0.0, 0.0, -4.96, -4.96, -5.21, -4.4, -4.6, 0.0, 0.0, 1.33, 3.58, 6.6, 8.91, 10.69, 8.81, 7.0, 6.03, 4.29, 2.8, 0.0, 0.0, -1.63, -1.61, -1.5, -1.77, -1.5, -1.33, -1.52, -1.52, -1.52, -9.42, -9.42, -9.42, -9.42, -9.42, -9.46, -9.46, -10.06, -9.48, -9.8, -9.8, -10.09, -10.12, -10.12, -10.12, -9.82, -9.82, -9.5, -9.5, -9.5, -8.87, -9.17, -9.15, -9.15, -8.49, -8.49, -7.78, -7.51, -7.51, -7.09, -7.09, -6.4, -5.92, -6.21, -5.47, -5.47, -4.92, -4.92, -4.73, -4.73, -4.73, -4.73, -4.73, -4.73, -4.54, -4.8, -4.23, -4.23, -4.05, -4.31, -3.95, -3.95, -4.25, -3.51, -3.81, -3.81, -4.0, -3.35, -2.69, -3.15, -3.6, -3.4, -3.0, -3.0, -1.23, 0.0, 0.0, -2.17, -5.21, -4.96, -5.21, -4.96, -5.21, -2.39, -2.02, 0.0, 0.0, 0.0, 4.24, 7.11, 6.85, 7.8, 7.97, 8.84, 7.7, 4.98, 1.89, 0.0, 0.0, -1.9, -3.56, -1.83, -1.83, -1.83, -1.77, -1.52, -1.52, -1.52, -9.42, -9.42, -9.42, -9.42, -9.42, -9.46, -9.46, -10.06, -10.06, -10.09, -10.09, -10.09, -9.8, -10.12, -10.12, -9.82, -9.5, -9.5, -9.5, -9.16, -8.87, -8.83, -9.15, -8.78, -8.49, -8.49, -7.78, -7.51, -7.51, -7.09, -7.09, -6.63, -6.4, -6.21, -5.47, -5.47, -5.47, -4.92, -4.73, -4.73, -4.54, -4.54, -4.73, -4.54, -4.8, -4.8, -4.23, -4.23, -4.31, -4.31, -4.31, -3.95, -3.95, -3.95, -4.07, -4.4, -3.81, -4.0, -3.35, -2.69, -3.15, -3.6, -4.29, -4.02, -2.6, -2.54, -2.06, -2.17, -2.17, -3.32, -2.39, -2.97, -2.39, -2.49, -2.49, 0.0, 0.0, 0.0, 3.32, 6.21, 5.45, 5.3, 9.2, 10.81, 9.75, 6.05, 2.88, 0.0, -1.9, -3.68, -3.68, -3.44, -3.44, -3.56, -1.83, -1.77, -1.77, -1.77, -9.08, -9.08, -9.08, -9.42, -9.42, -9.42, -9.46, -9.72, -10.06, -9.77, -9.77, -10.09, -9.8, -9.8, -9.8, -9.21, -9.21, -9.5, -9.5, -8.87, -8.59, -8.83, -9.15, -8.49, -8.49, -8.1, -7.78, -7.78, -7.51, -7.09, -7.09, -6.63, -6.7, -6.21, -5.98, -5.47, -5.26, -5.26, -5.26, -4.54, -4.54, -4.54, -4.54, -4.54, -4.54, -4.8, -4.8, -4.23, -4.31, -4.31, -4.31, -4.6, -4.6, -4.6, -4.71, -4.4, -4.56, -3.63, -4.0, -3.8, -4.37, -4.14, -4.29, -4.74, -5.01, -4.74, -3.4, -1.67, 0.0, -1.84, -2.39, -2.49, -2.39, -2.49, -2.49, 0.0, 0.0, 0.0, 1.84, 4.75, 4.39, 5.45, 7.43, 9.92, 8.25, 5.4, 0.0, -1.71, -3.82, -3.96, -4.93, -4.93, -4.75, -4.75, -3.32, -3.44, -3.44, -3.44, -9.08, -9.08, -9.08, -9.08, -9.42, -9.42, -9.46, -9.72, -9.77, -9.77, -10.09, -10.09, -9.8, -9.8, -9.5, -9.5, -9.21, -9.21, -8.87, -8.87, -8.53, -8.83, -8.78, -8.49, -8.1, -8.1, -7.78, -7.78, -7.51, -7.09, -7.09, -7.09, -6.7, -6.21, -6.21, -5.47, -5.26, -5.26, -5.26, -5.26, -5.05, -4.54, -4.54, -4.54, -4.54, -4.8, -4.8, -4.8, -4.87, -4.31, -4.31, -4.6, -4.6, -4.71, -4.71, -5.06, -4.56, -4.56, -4.74, -4.96, -5.31, -5.03, -5.37, -4.74, -4.89, -5.72, -5.06, -2.4, -1.95, -2.06, -2.28, -4.4, -4.4, -3.82, -2.49, -2.49, 0.0, 0.0, 2.1, 1.84, 3.32, 4.93, 6.0, 5.46, 5.03, 0.0, 0.0, -1.64, -4.15, -4.32, -5.2, -5.77, -6.76, -5.99, -5.2, -4.58, -4.58, -4.58, -9.08, -9.08, -9.08, -9.08, -9.42, -9.42, -9.46, -9.72, -9.77, -9.77, -9.77, -9.77, -9.77, -9.19, -9.5, -9.5, -9.21, -8.87, -8.87, -8.59, -8.53, -8.83, -8.49, -8.49, -8.1, -8.1, -7.78, -7.51, -7.51, -7.51, -7.09, -7.4, -6.7, -6.7, -6.21, -5.98, -5.26, -5.26, -5.26, -5.26, -5.26, -5.05, -5.05, -4.54, -4.54, -4.54, -4.8, -4.8, -4.87, -4.87, -4.87, -5.18, -5.18, -5.52, -4.92, -5.06, -5.21, -5.21, -4.74, -5.2, -5.44, -5.69, -5.93, -5.24, -5.58, -4.11, -4.29, -5.06, -5.37, -5.69, -5.69, -4.96, -4.2, -5.63, -4.4, -2.49, -2.39, 0.0, 0.0, 0.0, 1.91, 1.98, 3.44, 2.43, 0.0, 0.0, -0.99, -1.64, -3.98, -4.15, -5.0, -6.2, -7.26, -7.15, -5.0, -2.1, -2.1, -2.1, -8.82, -8.82, -9.08, -9.08, -9.42, -9.13, -9.46, -9.72, -10.06, -9.77, -9.48, -9.48, -9.48, -9.19, -9.19, -9.5, -8.87, -8.87, -8.87, -8.23, -8.53, -8.46, -8.49, -8.1, -8.1, -8.1, -7.78, -7.51, -7.51, -7.82, -7.4, -7.4, -7.14, -6.7, -5.92, -5.7, -5.48, -5.75, -5.26, -5.26, -5.26, -5.05, -5.05, -5.05, -5.05, -5.05, -4.73, -4.8, -4.8, -4.87, -5.18, -5.18, -5.18, -5.52, -5.52, -5.64, -5.21, -5.21, -5.63, -5.82, -5.44, -6.52, -6.32, -5.95, -5.58, -4.46, -5.06, -5.06, -5.37, -5.37, -7.63, -7.6, -6.79, -6.79, -5.9, -4.4, -2.39, 0.0, 0.0, 0.0, 0.0, 0.0, 0.0, 0.0, 0.0, 0.0, -0.95, -2.81, -4.32, -5.75, -4.4, -5.54, -7.9, -7.59, 0.0, 10.52, 10.52, 10.52, -9.12, -9.12, -8.82, -9.08, -9.08, -9.13, -9.13, -9.46, -9.46, -9.17, -9.17, -9.17, -9.17, -9.19, -9.19, -8.87, -8.87, -8.59, -8.23, -8.53, -8.53, -8.17, -8.1, -8.1, -8.1, -7.78, -7.78, -7.82, -7.82, -7.82, -7.82, -7.82, -7.14, -7.14, -6.4, -5.7, -5.7, -5.48, -5.48, -5.48, -5.48, -4.8, -5.05, -5.05, -5.05, -5.05, -5.05, -5.54, -4.8, -5.09, -5.7, -5.7, -5.52, -5.52, -5.52, -5.64, -5.38, -5.76, -6.18, -5.82, -6.32, -6.52, -6.18, -6.21, -5.82, -5.09, -3.79, -2.73, -2.4, -2.54, -6.01, -8.0, -8.0, -8.0, -8.0, -6.32, -5.21, -4.4, -2.49, -2.49, 0.0, 0.0, 1.19, 1.97, 2.72, 1.87, 0.0, -2.81, -6.94, -7.44, -6.5, -5.52, -7.59, 10.28, 10.14, 10.28, 10.28, 10.28, -9.12, -9.12, -8.82, -8.82, -8.82, -9.13, -9.13, -9.46, -9.46, -9.17, -9.17, -9.17, -9.17, -8.87, -8.58, -8.87, -8.87, -8.87, -8.53, -8.53, -7.87, -8.17, -8.17, -8.1, -8.1, -7.78, -7.51, -7.82, -7.82, -7.82, -7.82, -7.82, -7.54, -7.14, -7.14, -6.45, -6.45, -5.92, -5.92, -5.48, -5.26, -5.26, -5.52, -4.84, -4.84, -5.05, -5.05, -5.32, -5.32, -5.62, -5.95, -5.7, -6.05, -6.05, -6.05, -6.14, -6.14, -5.76, -5.76, -6.18, -6.32, -6.45, -6.55, -6.6, -6.21, -5.46, -4.41, -3.12, -3.2, -2.54, -4.96, -4.96, -2.97, -2.97, -5.21, -7.44, -8.0, -6.95, -7.27, -4.6, -4.6, -2.1, 1.29, 4.03, 5.3, 4.12, 1.25, -4.32, -9.08, -9.42, -6.7, 11.62, 9.55, 9.75, 9.74, 9.29, 9.29, 9.29, -9.12, -9.12, -8.82, -8.82, -8.82, -8.53, -8.85, -9.13, -9.13, -9.17, -8.87, -8.87, -8.87, -8.87, -8.58, -8.58, -8.53, -8.53, -8.53, -8.24, -7.87, -8.17, -7.78, -8.1, -7.78, -7.51, -7.51, -7.82, -7.82, -7.82, -7.82, -7.82, -7.54, -7.54, -7.54, -6.87, -6.87, -6.87, -6.33, -5.92, -5.69, -5.69, -5.52, -5.29, -5.29, -5.29, -4.84, -5.32, -5.32, -5.62, -5.95, -6.44, -6.05, -6.05, -6.42, -6.14, -6.14, -6.24, -6.24, -6.64, -6.32, -6.45, -6.55, -6.18, -6.8, -5.69, -5.09, -4.11, -3.72, -4.83, -2.69, 0.0, 0.0, 0.0, 0.0, -2.39, -6.64, -8.8, -8.23, -7.27, -4.6, -2.1, 0.0, 2.28, 4.38, 4.26, 2.13, 0.0, -10.73, -5.0, 9.66, 10.4, 10.32, 9.33, 9.46, 9.74, 9.74, 9.74, -9.12, -9.12, -8.82, -8.82, -8.82, -8.53, -8.85, -8.85, -8.85, -8.87, -8.87, -8.87, -8.87, -8.87, -8.24, -8.24, -8.24, -8.24, -8.24, -7.87, -8.17, -8.17, -7.78, -7.78, -7.51, -7.51, -7.51, -7.82, -7.82, -7.82, -8.2, -7.9, -7.54, -7.54, -7.54, -7.54, -7.26, -7.26, -6.61, -6.61, -6.2, -5.95, -5.95, -5.52, -5.29, -5.29, -5.29, -5.56, -5.56, -5.85, -5.85, -6.44, -6.51, -6.51, -6.88, -6.58, -6.58, -6.64, -6.24, -6.64, -6.32, -6.01, -6.44, -6.82, -6.8, -6.4, -5.69, -5.46, -4.81, -5.69, -4.71, -2.83, -2.83, 0.0, 0.0, 0.0, -4.2, -7.87, -8.23, -7.27, -4.6, -2.1, -2.19, 0.0, 1.08, 2.11, 1.83, 0.0, -0.0, 6.14, 8.93, 9.7, 10.27, 9.75, 8.91, 9.03, 9.03, 9.03, -8.22, -8.22, -8.82, -8.82, -8.82, -8.24, -8.85, -8.85, -8.85, -8.56, -8.87, -8.87, -8.54, -8.54, -8.24, -8.24, -8.24, -8.24, -7.87, -7.87, -8.17, -7.78, -7.78, -7.78, -7.51, -7.51, -7.51, -7.82, -7.82, -7.82, -8.2, -7.9, -7.9, -7.9, -7.9, -7.9, -7.26, -7.26, -7.26, -6.61, -6.61, -5.95, -5.95, -5.95, -5.7, -5.29, -5.29, -5.29, -5.56, -5.85, -5.85, -6.17, -6.51, -6.51, -6.88, -6.58, -6.58, -6.64, -6.64, -6.64, -6.32, -6.39, -6.79, -6.82, -6.82, -6.8, -6.07, -5.69, -5.69, -6.9, -6.79, -6.32, -3.8, -3.8, -4.0, -5.21, -4.2, -5.63, -6.95, -5.9, -4.6, -3.98, -2.28, -1.61, -1.1, 0.0, 0.98, 1.2, 8.91, 7.6, 7.81, 8.03, 9.2, 8.82, 8.4, 8.0, 8.0, 8.0, -8.22, -8.22, -8.53, -8.53, -8.53, -8.24, -8.54, -8.54, -8.54, -8.56, -8.24, -8.24, -8.54, -8.24, -8.24, -8.24, -8.24, -7.87, -7.87, -7.87, -7.78, -7.51, -7.51, -7.51, -7.51, -7.51, -7.51, -7.82, -7.82, -8.2, -8.2, -7.9, -7.9, -7.9, -7.9, -7.9, -7.26, -7.26, -7.26, -6.98, -6.61, -6.34, -6.34, -5.95, -5.7, -5.7, -5.7, -5.98, -5.98, -5.98, -6.27, -6.58, -6.51, -6.51, -6.58, -6.95, -7.31, -6.64, -6.64, -6.64, -6.68, -6.39, -6.39, -6.79, -6.82, -6.8, -6.8, -6.07, -6.07, -5.72, -5.82, -4.96, 0.0, 0.0, -2.83, -2.97, -5.21, -4.2, -4.2, -4.4, -4.6, -4.15, -3.68, -3.14, -2.18, -1.06, 0.0, 0.0, 2.28, 10.28, 8.0, 8.05, 7.68, 7.68, 8.4, 8.4, 8.4, 8.4, -8.22, -8.22, -8.53, -8.53, -8.53, -8.24, -8.24, -8.54, -8.54, -8.54, -8.24, -8.24, -8.24, -7.87, -7.87, -7.87, -7.87, -7.87, -7.87, -7.89, -7.51, -7.51, -7.51, -7.51, -7.51, -7.51, -7.51, -7.82, -7.82, -7.82, -8.2, -7.9, -7.9, -7.9, -7.9, -7.9, -7.26, -7.26, -7.26, -7.27, -7.27, -6.34, -6.34, -6.34, -6.34, -6.08, -5.7, -5.98, -5.98, -5.98, -6.27, -6.58, -6.92, -6.92, -6.95, -6.95, -7.31, -7.31, -6.98, -6.64, -6.68, -6.68, -6.7, -6.79, -7.2, -6.82, -6.8, -6.44, -6.07, -5.72, -5.43, -4.0, 0.0, 0.0, 0.0, 0.0, 0.0, -2.28, -2.28, -4.4, -3.82, -4.15, -3.68, -4.39, -2.35, -1.07, 0.0, 0.0, 1.77, 11.71, 10.79, 7.28, 7.44, 7.64, 7.64, 8.15, 8.15, 8.15, -8.22, -8.22, -8.53, -8.53, -8.53, -8.24, -8.24, -8.54, -8.54, -8.54, -8.24, -8.24, -7.89, -7.6, -7.6, -7.87, -7.87, -7.6, -7.6, -7.51, -7.51, -7.51, -7.51, -7.09, -7.51, -7.51, -7.51, -7.51, -7.82, -7.82, -7.9, -7.9, -7.9, -7.9, -7.9, -7.9, -7.61, -7.26, -6.98, -7.27, -7.27, -6.98, -6.98, -6.34, -6.34, -6.34, -6.08, -6.35, -6.35, -6.35, -6.64, -6.95, -6.92, -6.92, -6.95, -6.95, -6.95, -6.98, -6.98, -6.98, -6.98, -6.68, -7.06, -6.7, -7.07, -6.82, -6.82, -6.44, -6.44, -6.07, -5.43, -3.97, -1.32, 0.0, 0.0, 0.0, 0.0, 0.0, -2.28, -4.2, -3.82, -5.75, -5.2, -4.39, -3.53, -1.11, 0.0, 1.13, 1.48, 6.94, 12.07, 9.58, 6.87, 7.64, 7.64, 8.15, 8.15, 8.15, -8.22, -8.22, -8.53, -8.53, -8.53, -8.24, -8.24, -8.54, -8.54, -8.54, -8.24, -8.24, -7.89, -7.6, -7.6, -7.87, -7.87, -7.6, -7.6, -7.51, -7.51, -7.51, -7.51, -7.09, -7.51, -7.51, -7.51, -7.51, -7.82, -7.82, -7.9, -7.9, -7.9, -7.9, -7.9, -7.9, -7.61, -7.26, -6.98, -7.27, -7.27, -6.98, -6.98, -6.34, -6.34, -6.34, -6.08, -6.35, -6.35, -6.35, -6.64, -6.95, -6.92, -6.92, -6.95, -6.95, -6.95, -6.98, -6.98, -6.98, -6.98, -6.68, -7.06, -6.7, -7.07, -6.82, -6.82, -6.44, -6.44, -6.07, -5.43, -3.97, -1.32, 0.0, 0.0, 0.0, 0.0, 0.0, -2.28, -4.2, -3.82, -5.52, -5.0, -4.24, -3.6, -2.11, 0.0, 1.08, 1.34, 2.28, 10.41, 10.79, 8.73, 7.44, 7.81, 8.54, 8.54, 8.54]}]